Wetterdaten: aktuell Donnerstag, 22.08.2019 16:42
Datum Zeit Temp. 2m Temp. 5cm Temp. -10cm Temp. 2m alt Feuchte A. Luftdruck Regen Wind Richtung Richtung Taupunkt Windchill Windben
22.08.2019 16:42 21,9 C 22,3 C 19,7 C 0,0 C 64 % 1025,8 hPa 0,0 l/m 4,8 km/h (1 Bft) N 360 14,8 C 21,9 C 5,6 km/h (1 Bft)
22.08.2019 16:40 21,9 C 22,4 C 19,7 C 0,0 C 64 % 1025,8 hPa 0,0 l/m 5,0 km/h (1 Bft) O 90 14,8 C 21,9 C 8,5 km/h (2 Bft)
22.08.2019 16:38 22,0 C 22,4 C 19,7 C 0,0 C 63 % 1025,8 hPa 0,0 l/m 5,0 km/h (1 Bft) O-NO 67 14,6 C 22,0 C 10,2 km/h (2 Bft)
22.08.2019 16:36 21,9 C 22,9 C 19,7 C 0,0 C 63 % 1025,8 hPa 0,0 l/m 4,8 km/h (1 Bft) O-NO 67 14,5 C 21,9 C 10,2 km/h (2 Bft)
22.08.2019 16:34 22,0 C 23,0 C 19,7 C 0,0 C 63 % 1025,8 hPa 0,0 l/m 4,3 km/h (1 Bft) O 90 14,6 C 22,0 C 9,7 km/h (2 Bft)
22.08.2019 16:32 21,9 C 23,8 C 19,7 C 0,0 C 65 % 1025,8 hPa 0,0 l/m 4,2 km/h (1 Bft) O-NO 67 15,0 C 21,9 C 9,7 km/h (2 Bft)
22.08.2019 16:30 21,7 C 23,3 C 19,7 C 0,0 C 65 % 1025,8 hPa 0,0 l/m 4,2 km/h (1 Bft) O-NO 67 14,8 C 21,7 C 7,0 km/h (2 Bft)
22.08.2019 16:28 21,7 C 22,6 C 19,7 C 0,0 C 64 % 1025,8 hPa 0,0 l/m 4,5 km/h (1 Bft) NO 45 14,6 C 21,7 C 4,6 km/h (1 Bft)
22.08.2019 16:26 21,7 C 22,4 C 19,7 C 0,0 C 64 % 1025,8 hPa 0,0 l/m 5,1 km/h (1 Bft) O-NO 67 14,6 C 21,7 C 4,1 km/h (1 Bft)
22.08.2019 16:24 21,7 C 22,1 C 19,7 C 0,0 C 64 % 1025,8 hPa 0,0 l/m 5,1 km/h (1 Bft) N-NW 337 14,6 C 21,7 C 3,7 km/h (1 Bft)
22.08.2019 16:22 21,7 C 22,3 C 19,7 C 0,0 C 64 % 1025,8 hPa 0,0 l/m 5,5 km/h (1 Bft) NO 45 14,6 C 21,7 C 8,1 km/h (2 Bft)
22.08.2019 16:20 21,6 C 22,3 C 19,7 C 0,0 C 64 % 1025,8 hPa 0,0 l/m 5,5 km/h (1 Bft) N 360 14,5 C 21,6 C 8,1 km/h (2 Bft)
22.08.2019 16:18 21,7 C 22,1 C 19,7 C 0,0 C 63 % 1025,8 hPa 0,0 l/m 5,1 km/h (1 Bft) NW 315 14,3 C 21,7 C 13,3 km/h (3 Bft)
22.08.2019 16:16 21,8 C 22,4 C 19,7 C 0,0 C 64 % 1025,8 hPa 0,0 l/m 5,0 km/h (1 Bft) N-NO 22 14,7 C 21,8 C 13,3 km/h (3 Bft)
22.08.2019 16:14 21,9 C 22,5 C 19,7 C 0,0 C 65 % 1025,8 hPa 0,0 l/m 4,7 km/h (1 Bft) NO 45 15,0 C 21,9 C 7,1 km/h (2 Bft)
22.08.2019 16:12 21,9 C 22,9 C 19,7 C 0,0 C 65 % 1025,8 hPa 0,0 l/m 4,7 km/h (1 Bft) O-NO 67 15,0 C 21,9 C 7,1 km/h (2 Bft)
22.08.2019 16:10 21,8 C 22,8 C 19,7 C 0,0 C 65 % 1025,8 hPa 0,0 l/m 4,3 km/h (1 Bft) O-NO 67 14,9 C 21,8 C 5,0 km/h (1 Bft)
22.08.2019 16:08 22,0 C 22,4 C 19,7 C 0,0 C 63 % 1025,8 hPa 0,0 l/m 4,2 km/h (1 Bft) O-SO 112 14,6 C 22,0 C 8,1 km/h (2 Bft)
22.08.2019 16:06 21,9 C 22,8 C 19,7 C 0,0 C 64 % 1025,8 hPa 0,0 l/m 3,7 km/h (1 Bft) O-NO 67 14,8 C 21,9 C 8,1 km/h (2 Bft)
22.08.2019 16:04 21,9 C 22,7 C 19,7 C 0,0 C 64 % 1026,0 hPa 0,0 l/m 3,5 km/h (1 Bft) O-SO 112 14,8 C 21,9 C 6,4 km/h (2 Bft)
22.08.2019 16:02 22,0 C 23,3 C 19,7 C 0,0 C 63 % 1026,0 hPa 0,0 l/m 3,9 km/h (1 Bft) SO 135 14,6 C 22,0 C 7,3 km/h (2 Bft)
22.08.2019 16:00 21,9 C 23,5 C 19,6 C 0,0 C 63 % 1026,0 hPa 0,0 l/m 4,0 km/h (1 Bft) O-SO 112 14,5 C 21,9 C 7,3 km/h (2 Bft)
22.08.2019 15:58 21,9 C 24,0 C 19,6 C 0,0 C 63 % 1026,0 hPa 0,0 l/m 4,2 km/h (1 Bft) NO 45 14,5 C 21,9 C 5,0 km/h (1 Bft)
22.08.2019 15:56 21,8 C 24,3 C 19,6 C 0,0 C 63 % 1026,0 hPa 0,0 l/m 4,3 km/h (1 Bft) O-SO 112 14,4 C 21,8 C 5,2 km/h (1 Bft)
22.08.2019 15:54 21,7 C 24,1 C 19,6 C 0,0 C 63 % 1026,0 hPa 0,0 l/m 4,5 km/h (1 Bft) N-NO 22 14,3 C 21,7 C 8,7 km/h (2 Bft)
22.08.2019 15:52 21,5 C 25,5 C 19,6 C 0,0 C 64 % 1026,0 hPa 0,0 l/m 4,7 km/h (1 Bft) N 360 14,4 C 21,5 C 12,4 km/h (3 Bft)
22.08.2019 15:50 21,5 C 24,7 C 19,6 C 0,0 C 65 % 1026,0 hPa 0,0 l/m 5,0 km/h (1 Bft) N 360 14,6 C 21,5 C 12,4 km/h (3 Bft)
22.08.2019 15:48 21,3 C 23,7 C 19,6 C 0,0 C 66 % 1026,0 hPa 0,0 l/m 4,5 km/h (1 Bft) NO 45 14,7 C 21,3 C 4,4 km/h (1 Bft)
22.08.2019 15:46 21,1 C 22,6 C 19,6 C 0,0 C 65 % 1026,0 hPa 0,0 l/m 5,1 km/h (1 Bft) NO 45 14,3 C 21,1 C 6,8 km/h (2 Bft)
22.08.2019 15:44 21,1 C 22,2 C 19,6 C 0,0 C 65 % 1026,0 hPa 0,0 l/m 5,5 km/h (1 Bft) N 360 14,3 C 21,1 C 6,8 km/h (2 Bft)
22.08.2019 15:42 21,1 C 22,1 C 19,6 C 0,0 C 65 % 1026,0 hPa 0,0 l/m 5,5 km/h (1 Bft) NO 45 14,3 C 21,1 C 8,3 km/h (2 Bft)
22.08.2019 15:40 21,0 C 21,7 C 19,6 C 0,0 C 65 % 1026,0 hPa 0,0 l/m 5,1 km/h (1 Bft) NW 315 14,2 C 21,0 C 8,3 km/h (2 Bft)
22.08.2019 15:38 21,0 C 21,8 C 19,6 C 0,0 C 65 % 1026,0 hPa 0,0 l/m 5,5 km/h (1 Bft) O-SO 112 14,2 C 21,0 C 9,5 km/h (2 Bft)
22.08.2019 15:36 21,0 C 21,6 C 19,5 C 0,0 C 66 % 1026,0 hPa 0,0 l/m 5,3 km/h (1 Bft) NO 45 14,4 C 21,0 C 9,5 km/h (2 Bft)
22.08.2019 15:34 21,1 C 21,7 C 19,5 C 0,0 C 66 % 1026,0 hPa 0,0 l/m 4,8 km/h (1 Bft) NO 45 14,5 C 21,1 C 5,8 km/h (2 Bft)
22.08.2019 15:32 21,0 C 21,8 C 19,5 C 0,0 C 66 % 1026,0 hPa 0,0 l/m 5,3 km/h (1 Bft) NO 45 14,4 C 21,0 C 5,8 km/h (2 Bft)
22.08.2019 15:30 21,0 C 21,6 C 19,5 C 0,0 C 66 % 1026,0 hPa 0,0 l/m 5,5 km/h (1 Bft) NO 45 14,4 C 21,0 C 9,8 km/h (2 Bft)
22.08.2019 15:28 21,0 C 21,5 C 19,5 C 0,0 C 66 % 1026,0 hPa 0,0 l/m 5,5 km/h (1 Bft) NO 45 14,4 C 21,0 C 9,8 km/h (2 Bft)
22.08.2019 15:26 21,0 C 21,5 C 19,5 C 0,0 C 66 % 1026,0 hPa 0,0 l/m 6,0 km/h (2 Bft) O 90 14,4 C 21,0 C 8,5 km/h (2 Bft)
22.08.2019 15:24 21,0 C 21,5 C 19,5 C 0,0 C 66 % 1026,3 hPa 0,0 l/m 5,6 km/h (1 Bft) NO 45 14,4 C 21,0 C 9,7 km/h (2 Bft)
22.08.2019 15:22 21,0 C 21,7 C 19,5 C 0,0 C 66 % 1026,3 hPa 0,0 l/m 4,7 km/h (1 Bft) NO 45 14,4 C 21,0 C 9,7 km/h (2 Bft)
22.08.2019 15:20 20,9 C 21,7 C 19,5 C 0,0 C 66 % 1026,3 hPa 0,0 l/m 4,2 km/h (1 Bft) NO 45 14,3 C 20,9 C 9,7 km/h (2 Bft)
22.08.2019 15:18 20,9 C 21,8 C 19,5 C 0,0 C 67 % 1026,3 hPa 0,0 l/m 3,5 km/h (1 Bft) N 360 14,5 C 20,9 C 12,6 km/h (3 Bft)
22.08.2019 15:16 20,9 C 21,9 C 19,5 C 0,0 C 67 % 1026,3 hPa 0,0 l/m 3,1 km/h (1 Bft) N 360 14,5 C 20,9 C 12,6 km/h (3 Bft)
22.08.2019 15:14 20,9 C 22,3 C 19,5 C 0,0 C 67 % 1026,3 hPa 0,0 l/m 3,1 km/h (1 Bft) O-SO 112 14,5 C 20,9 C 2,7 km/h (1 Bft)
22.08.2019 15:12 20,9 C 22,3 C 19,5 C 0,0 C 66 % 1026,3 hPa 0,0 l/m 3,2 km/h (1 Bft) S 180 14,3 C 20,9 C 3,9 km/h (1 Bft)
22.08.2019 15:10 20,9 C 22,2 C 19,5 C 0,0 C 66 % 1026,3 hPa 0,0 l/m 3,1 km/h (1 Bft) O-SO 112 14,3 C 20,9 C 4,8 km/h (1 Bft)
22.08.2019 15:08 20,8 C 22,0 C 19,5 C 0,0 C 66 % 1026,3 hPa 0,0 l/m 3,5 km/h (1 Bft) NO 45 14,2 C 20,8 C 8,1 km/h (2 Bft)
22.08.2019 15:06 20,7 C 22,2 C 19,5 C 0,0 C 66 % 1026,3 hPa 0,0 l/m 3,4 km/h (1 Bft) O-NO 67 14,1 C 20,7 C 8,1 km/h (2 Bft)
22.08.2019 15:04 20,7 C 22,2 C 19,5 C 0,0 C 66 % 1026,5 hPa 0,0 l/m 3,7 km/h (1 Bft) N-NW 337 14,1 C 20,7 C 5,8 km/h (2 Bft)
22.08.2019 15:02 20,7 C 21,7 C 19,5 C 0,0 C 66 % 1026,5 hPa 0,0 l/m 4,0 km/h (1 Bft) SO 135 14,1 C 20,7 C 4,1 km/h (1 Bft)
22.08.2019 15:00 20,8 C 21,4 C 19,5 C 0,0 C 66 % 1026,5 hPa 0,0 l/m 4,2 km/h (1 Bft) SO 135 14,2 C 20,8 C 10,0 km/h (2 Bft)
22.08.2019 14:58 20,8 C 21,9 C 19,5 C 0,0 C 66 % 1026,5 hPa 0,0 l/m 4,3 km/h (1 Bft) O-SO 112 14,2 C 20,8 C 10,0 km/h (2 Bft)
22.08.2019 14:56 20,7 C 22,2 C 19,5 C 0,0 C 66 % 1026,5 hPa 0,0 l/m 4,5 km/h (1 Bft) S-SO 157 14,1 C 20,7 C 13,1 km/h (3 Bft)
22.08.2019 14:54 20,6 C 22,5 C 19,5 C 0,0 C 66 % 1026,5 hPa 0,0 l/m 4,8 km/h (1 Bft) NO 45 14,0 C 20,6 C 13,1 km/h (3 Bft)
22.08.2019 14:52 20,6 C 22,0 C 19,5 C 0,0 C 66 % 1026,5 hPa 0,0 l/m 4,8 km/h (1 Bft) S 180 14,0 C 20,6 C 8,3 km/h (2 Bft)
22.08.2019 14:50 20,6 C 21,7 C 19,4 C 0,0 C 66 % 1026,5 hPa 0,0 l/m 5,0 km/h (1 Bft) S-SO 157 14,0 C 20,6 C 5,4 km/h (1 Bft)
22.08.2019 14:48 20,6 C 21,8 C 19,4 C 0,0 C 67 % 1026,5 hPa 0,0 l/m 5,3 km/h (1 Bft) SO 135 14,3 C 20,6 C 8,1 km/h (2 Bft)
22.08.2019 14:46 20,5 C 21,9 C 19,4 C 0,0 C 67 % 1026,5 hPa 0,0 l/m 5,1 km/h (1 Bft) O-NO 67 14,2 C 20,5 C 10,2 km/h (2 Bft)
22.08.2019 14:44 20,3 C 21,9 C 19,4 C 0,0 C 67 % 1026,7 hPa 0,0 l/m 5,3 km/h (1 Bft) O-NO 67 14,0 C 20,3 C 10,2 km/h (2 Bft)
22.08.2019 14:42 20,3 C 22,0 C 19,5 C 0,0 C 67 % 1026,7 hPa 0,0 l/m 5,5 km/h (1 Bft) NO 45 14,0 C 20,3 C 14,1 km/h (3 Bft)
22.08.2019 14:40 20,2 C 21,7 C 19,5 C 0,0 C 67 % 1026,7 hPa 0,0 l/m 5,5 km/h (1 Bft) N-NO 22 13,9 C 20,2 C 14,1 km/h (3 Bft)
22.08.2019 14:38 20,1 C 21,6 C 19,5 C 0,0 C 68 % 1026,7 hPa 0,0 l/m 5,8 km/h (2 Bft) O-SO 112 14,0 C 20,1 C 7,5 km/h (2 Bft)
22.08.2019 14:36 20,0 C 21,2 C 19,5 C 0,0 C 68 % 1026,7 hPa 0,0 l/m 5,6 km/h (1 Bft) NO 45 13,9 C 20,0 C 8,3 km/h (2 Bft)
22.08.2019 14:34 20,0 C 20,4 C 19,5 C 0,0 C 68 % 1026,7 hPa 0,0 l/m 6,3 km/h (2 Bft) O-NO 67 13,9 C 20,0 C 12,6 km/h (3 Bft)
22.08.2019 14:32 19,9 C 20,5 C 19,5 C 0,0 C 68 % 1026,7 hPa 0,0 l/m 6,3 km/h (2 Bft) O-SO 112 13,8 C 19,9 C 12,6 km/h (3 Bft)
22.08.2019 14:30 19,9 C 20,9 C 19,5 C 0,0 C 68 % 1026,7 hPa 0,0 l/m 6,0 km/h (2 Bft) O-NO 67 13,8 C 19,9 C 8,1 km/h (2 Bft)
22.08.2019 14:28 19,9 C 21,0 C 19,5 C 0,0 C 68 % 1026,7 hPa 0,0 l/m 5,8 km/h (2 Bft) O-NO 67 13,8 C 19,9 C 7,9 km/h (2 Bft)
22.08.2019 14:26 19,8 C 21,1 C 19,5 C 0,0 C 68 % 1026,7 hPa 0,0 l/m 6,0 km/h (2 Bft) NO 45 13,7 C 19,8 C 11,8 km/h (2 Bft)
22.08.2019 14:24 19,8 C 20,6 C 19,5 C 0,0 C 68 % 1026,6 hPa 0,0 l/m 6,0 km/h (2 Bft) O-NO 67 13,7 C 19,8 C 13,7 km/h (3 Bft)
22.08.2019 14:22 19,8 C 20,8 C 19,5 C 0,0 C 68 % 1026,6 hPa 0,0 l/m 5,5 km/h (1 Bft) NO 45 13,7 C 19,8 C 13,7 km/h (3 Bft)
22.08.2019 14:20 19,7 C 20,8 C 19,5 C 0,0 C 68 % 1026,6 hPa 0,0 l/m 5,6 km/h (1 Bft) O-NO 67 13,6 C 19,7 C 8,1 km/h (2 Bft)
22.08.2019 14:18 19,7 C 20,7 C 19,5 C 0,0 C 68 % 1026,6 hPa 0,0 l/m 5,8 km/h (2 Bft) SO 135 13,6 C 19,7 C 7,1 km/h (2 Bft)
22.08.2019 14:16 19,7 C 20,3 C 19,5 C 0,0 C 68 % 1026,6 hPa 0,0 l/m 6,1 km/h (2 Bft) NO 45 13,6 C 19,7 C 7,1 km/h (2 Bft)
22.08.2019 14:14 19,7 C 20,2 C 19,5 C 0,0 C 68 % 1026,6 hPa 0,0 l/m 6,1 km/h (2 Bft) O-SO 112 13,6 C 19,7 C 11,4 km/h (2 Bft)
22.08.2019 14:12 19,7 C 20,3 C 19,5 C 0,0 C 68 % 1026,6 hPa 0,0 l/m 6,3 km/h (2 Bft) N 360 13,6 C 19,7 C 11,4 km/h (2 Bft)
22.08.2019 14:10 19,6 C 20,4 C 19,5 C 0,0 C 68 % 1026,6 hPa 0,0 l/m 6,0 km/h (2 Bft) O-NO 67 13,5 C 19,6 C 10,4 km/h (2 Bft)
22.08.2019 14:08 19,6 C 20,3 C 19,5 C 0,0 C 69 % 1026,6 hPa 0,0 l/m 6,0 km/h (2 Bft) O-NO 67 13,8 C 19,6 C 8,5 km/h (2 Bft)
22.08.2019 14:06 19,5 C 20,6 C 19,5 C 0,0 C 69 % 1026,6 hPa 0,0 l/m 5,5 km/h (1 Bft) O-NO 67 13,7 C 19,5 C 12,4 km/h (3 Bft)
22.08.2019 14:04 19,4 C 20,3 C 19,4 C 0,0 C 69 % 1026,8 hPa 0,0 l/m 5,3 km/h (1 Bft) NO 45 13,6 C 19,4 C 12,4 km/h (3 Bft)
22.08.2019 14:02 19,4 C 20,2 C 19,4 C 0,0 C 69 % 1026,8 hPa 0,0 l/m 5,0 km/h (1 Bft) O 90 13,6 C 19,4 C 6,6 km/h (2 Bft)
22.08.2019 14:00 19,3 C 20,2 C 19,4 C 0,0 C 69 % 1026,8 hPa 0,0 l/m 5,1 km/h (1 Bft) NO 45 13,5 C 19,3 C 11,4 km/h (2 Bft)
22.08.2019 13:58 19,3 C 19,9 C 19,4 C 0,0 C 69 % 1026,8 hPa 0,0 l/m 5,3 km/h (1 Bft) N-NO 22 13,5 C 19,3 C 11,4 km/h (2 Bft)
22.08.2019 13:56 19,3 C 19,7 C 19,4 C 0,0 C 68 % 1026,8 hPa 0,0 l/m 5,5 km/h (1 Bft) N-NO 22 13,2 C 19,3 C 7,7 km/h (2 Bft)
22.08.2019 13:54 19,3 C 19,7 C 19,4 C 0,0 C 68 % 1026,8 hPa 0,0 l/m 5,6 km/h (1 Bft) N 360 13,2 C 19,3 C 7,9 km/h (2 Bft)
22.08.2019 13:52 19,3 C 19,8 C 19,4 C 0,0 C 69 % 1026,8 hPa 0,0 l/m 6,3 km/h (2 Bft) O-NO 67 13,5 C 19,3 C 7,9 km/h (2 Bft)
22.08.2019 13:50 19,3 C 19,7 C 19,4 C 0,0 C 69 % 1026,8 hPa 0,0 l/m 6,0 km/h (2 Bft) O-SO 112 13,5 C 19,3 C 9,5 km/h (2 Bft)
22.08.2019 13:48 19,3 C 19,9 C 19,4 C 0,0 C 69 % 1026,8 hPa 0,0 l/m 6,1 km/h (2 Bft) O-SO 112 13,5 C 19,3 C 9,5 km/h (2 Bft)
22.08.2019 13:46 19,3 C 20,3 C 19,4 C 0,0 C 69 % 1026,8 hPa 0,0 l/m 6,0 km/h (2 Bft) NO 45 13,5 C 19,3 C 8,7 km/h (2 Bft)
22.08.2019 13:44 19,2 C 20,3 C 19,4 C 0,0 C 69 % 1026,9 hPa 0,0 l/m 6,1 km/h (2 Bft) NO 45 13,4 C 19,2 C 8,9 km/h (2 Bft)
22.08.2019 13:42 19,1 C 20,0 C 19,4 C 0,0 C 69 % 1026,9 hPa 0,0 l/m 6,3 km/h (2 Bft) O-NO 67 13,3 C 19,1 C 8,9 km/h (2 Bft)
22.08.2019 13:40 19,1 C 19,8 C 19,4 C 0,0 C 69 % 1026,9 hPa 0,0 l/m 6,3 km/h (2 Bft) O 90 13,3 C 19,1 C 9,7 km/h (2 Bft)
22.08.2019 13:38 19,1 C 19,8 C 19,4 C 0,0 C 69 % 1026,9 hPa 0,0 l/m 6,8 km/h (2 Bft) N-NW 337 13,3 C 18,9 C 9,7 km/h (2 Bft)
22.08.2019 13:36 19,0 C 19,8 C 19,4 C 0,0 C 69 % 1026,9 hPa 0,0 l/m 6,6 km/h (2 Bft) NO 45 13,2 C 18,9 C 9,1 km/h (2 Bft)
22.08.2019 13:34 19,0 C 19,7 C 19,4 C 0,0 C 69 % 1026,9 hPa 0,0 l/m 6,3 km/h (2 Bft) NO 45 13,2 C 19,0 C 12,9 km/h (3 Bft)
22.08.2019 13:32 19,0 C 19,6 C 19,4 C 0,0 C 69 % 1026,9 hPa 0,0 l/m 6,1 km/h (2 Bft) O-SO 112 13,2 C 19,0 C 12,9 km/h (3 Bft)
22.08.2019 13:30 19,0 C 19,3 C 19,4 C 0,0 C 69 % 1026,9 hPa 0,0 l/m 5,8 km/h (2 Bft) NO 45 13,2 C 19,0 C 6,2 km/h (2 Bft)
22.08.2019 13:28 19,0 C 19,3 C 19,4 C 0,0 C 69 % 1026,9 hPa 0,0 l/m 6,1 km/h (2 Bft) NO 45 13,2 C 19,0 C 11,4 km/h (2 Bft)
22.08.2019 13:26 19,0 C 19,7 C 19,4 C 0,0 C 69 % 1026,9 hPa 0,0 l/m 6,4 km/h (2 Bft) O-NO 67 13,2 C 19,0 C 11,4 km/h (2 Bft)
22.08.2019 13:24 19,0 C 20,2 C 19,4 C 0,0 C 69 % 1027,0 hPa 0,0 l/m 6,6 km/h (2 Bft) N 360 13,2 C 18,9 C 9,3 km/h (2 Bft)
22.08.2019 13:22 18,9 C 19,3 C 19,4 C 0,0 C 69 % 1027,0 hPa 0,0 l/m 6,6 km/h (2 Bft) O 90 13,1 C 18,8 C 9,3 km/h (2 Bft)
22.08.2019 13:20 18,9 C 19,5 C 19,4 C 0,0 C 69 % 1027,0 hPa 0,0 l/m 6,9 km/h (2 Bft) O-NO 67 13,1 C 18,7 C 12,9 km/h (3 Bft)
22.08.2019 13:18 18,8 C 19,4 C 19,4 C 0,0 C 69 % 1027,0 hPa 0,0 l/m 7,2 km/h (2 Bft) O-NO 67 13,0 C 18,4 C 14,3 km/h (3 Bft)
22.08.2019 13:16 19,0 C 19,3 C 19,4 C 0,0 C 69 % 1027,0 hPa 0,0 l/m 7,1 km/h (2 Bft) NO 45 13,2 C 18,7 C 14,3 km/h (3 Bft)
22.08.2019 13:14 19,0 C 19,4 C 19,4 C 0,0 C 69 % 1027,0 hPa 0,0 l/m 6,6 km/h (2 Bft) NO 45 13,2 C 18,9 C 12,9 km/h (3 Bft)
22.08.2019 13:12 19,0 C 19,7 C 19,4 C 0,0 C 69 % 1027,0 hPa 0,0 l/m 6,6 km/h (2 Bft) N-NW 337 13,2 C 18,9 C 7,5 km/h (2 Bft)
22.08.2019 13:10 19,0 C 19,3 C 19,4 C 0,0 C 69 % 1027,0 hPa 0,0 l/m 6,9 km/h (2 Bft) N 360 13,2 C 18,8 C 13,1 km/h (3 Bft)
22.08.2019 13:08 18,9 C 19,3 C 19,4 C 0,0 C 69 % 1027,0 hPa 0,0 l/m 7,6 km/h (2 Bft) NO 45 13,1 C 18,4 C 13,1 km/h (3 Bft)
22.08.2019 13:06 19,0 C 19,6 C 19,4 C 0,0 C 69 % 1027,0 hPa 0,0 l/m 7,4 km/h (2 Bft) SO 135 13,2 C 18,6 C 9,8 km/h (2 Bft)
22.08.2019 13:04 19,0 C 19,4 C 19,4 C 0,0 C 69 % 1026,7 hPa 0,0 l/m 7,9 km/h (2 Bft) N-NW 337 13,2 C 18,3 C 10,6 km/h (2 Bft)
22.08.2019 13:02 19,0 C 19,3 C 19,4 C 0,0 C 68 % 1026,7 hPa 0,0 l/m 8,2 km/h (2 Bft) NO 45 13,0 C 18,2 C 11,6 km/h (2 Bft)
22.08.2019 13:00 19,0 C 19,8 C 19,4 C 0,0 C 69 % 1026,7 hPa 0,0 l/m 8,5 km/h (2 Bft) N 360 13,2 C 18,1 C 16,2 km/h (3 Bft)
22.08.2019 12:58 19,1 C 20,2 C 19,4 C 0,0 C 69 % 1026,7 hPa 0,0 l/m 8,5 km/h (2 Bft) NO 45 13,3 C 18,2 C 16,2 km/h (3 Bft)
22.08.2019 12:56 19,0 C 20,1 C 19,4 C 0,0 C 69 % 1026,7 hPa 0,0 l/m 8,7 km/h (2 Bft) N 360 13,2 C 18,0 C 16,0 km/h (3 Bft)
22.08.2019 12:54 19,0 C 19,8 C 19,4 C 0,0 C 68 % 1026,7 hPa 0,0 l/m 9,2 km/h (2 Bft) N 360 13,0 C 17,8 C 14,7 km/h (3 Bft)
22.08.2019 12:52 19,0 C 19,5 C 19,4 C 0,0 C 68 % 1026,7 hPa 0,0 l/m 9,3 km/h (2 Bft) N-NO 22 13,0 C 17,8 C 14,7 km/h (3 Bft)
22.08.2019 12:50 19,0 C 19,7 C 19,3 C 0,0 C 68 % 1026,7 hPa 0,0 l/m 9,2 km/h (2 Bft) NO 45 13,0 C 17,8 C 16,0 km/h (3 Bft)
22.08.2019 12:48 19,1 C 19,8 C 19,3 C 0,0 C 68 % 1026,7 hPa 0,0 l/m 9,2 km/h (2 Bft) N 360 13,1 C 17,9 C 16,0 km/h (3 Bft)
22.08.2019 12:46 19,0 C 19,6 C 19,3 C 0,0 C 68 % 1026,7 hPa 0,0 l/m 8,7 km/h (2 Bft) O-NO 67 13,0 C 18,0 C 16,4 km/h (3 Bft)
22.08.2019 12:44 19,0 C 19,9 C 19,3 C 0,0 C 68 % 1026,8 hPa 0,0 l/m 8,9 km/h (2 Bft) O-NO 67 13,0 C 17,9 C 16,4 km/h (3 Bft)
22.08.2019 12:42 19,0 C 20,1 C 19,2 C 0,0 C 68 % 1026,8 hPa 0,0 l/m 9,0 km/h (2 Bft) O-NO 67 13,0 C 17,9 C 13,7 km/h (3 Bft)
22.08.2019 12:40 19,0 C 19,7 C 19,2 C 0,0 C 68 % 1026,8 hPa 0,0 l/m 9,8 km/h (2 Bft) NW 315 13,0 C 17,6 C 18,5 km/h (3 Bft)
22.08.2019 12:38 19,1 C 19,6 C 19,2 C 0,0 C 68 % 1026,8 hPa 0,0 l/m 12,6 km/h (3 Bft) O 90 13,1 C 16,8 C 18,5 km/h (3 Bft)
22.08.2019 12:36 19,1 C 19,5 C 19,2 C 0,0 C 67 % 1026,8 hPa 0,0 l/m 15,3 km/h (3 Bft) O-NO 67 12,8 C 16,1 C 19,7 km/h (3 Bft)
22.08.2019 12:34 19,1 C 19,7 C 19,2 C 0,0 C 68 % 1026,8 hPa 0,0 l/m 15,8 km/h (3 Bft) O-NO 67 13,1 C 16,0 C 41,3 km/h (6 Bft)
22.08.2019 12:32 19,2 C 19,7 C 19,2 C 0,0 C 67 % 1026,8 hPa 0,0 l/m 16,9 km/h (3 Bft) N-NO 22 12,9 C 15,8 C 32,1 km/h (5 Bft)
22.08.2019 12:30 19,2 C 19,6 C 19,2 C 0,0 C 67 % 1026,8 hPa 0,0 l/m 17,1 km/h (3 Bft) O-NO 67 12,9 C 15,8 C 34,4 km/h (5 Bft)
22.08.2019 12:28 19,3 C 19,7 C 19,2 C 0,0 C 67 % 1026,8 hPa 0,0 l/m 16,3 km/h (3 Bft) O-NO 67 13,0 C 16,1 C 34,4 km/h (5 Bft)
22.08.2019 12:26 19,3 C 19,8 C 19,2 C 0,0 C 67 % 1026,8 hPa 0,0 l/m 15,4 km/h (3 Bft) N-NO 22 13,0 C 16,3 C 32,1 km/h (5 Bft)
22.08.2019 12:24 19,3 C 20,3 C 19,2 C 0,0 C 67 % 1026,9 hPa 0,0 l/m 14,6 km/h (3 Bft) N 360 13,0 C 16,5 C 23,9 km/h (4 Bft)
22.08.2019 12:22 19,3 C 20,0 C 19,2 C 0,0 C 67 % 1026,9 hPa 0,0 l/m 16,1 km/h (3 Bft) O-SO 112 13,0 C 16,1 C 23,9 km/h (4 Bft)
22.08.2019 12:20 19,3 C 19,9 C 19,1 C 0,0 C 67 % 1026,9 hPa 0,0 l/m 16,6 km/h (3 Bft) O-NO 67 13,0 C 16,0 C 24,1 km/h (4 Bft)
22.08.2019 12:18 19,2 C 20,1 C 19,1 C 0,0 C 67 % 1026,9 hPa 0,0 l/m 16,6 km/h (3 Bft) NO 45 12,9 C 15,9 C 29,0 km/h (5 Bft)
22.08.2019 12:16 19,1 C 19,8 C 19,1 C 0,0 C 67 % 1026,9 hPa 0,0 l/m 15,4 km/h (3 Bft) O-NO 67 12,8 C 16,1 C 29,0 km/h (5 Bft)
22.08.2019 12:14 19,1 C 19,5 C 19,1 C 0,0 C 67 % 1026,9 hPa 0,0 l/m 13,4 km/h (3 Bft) NO 45 12,8 C 16,6 C 36,9 km/h (5 Bft)
22.08.2019 12:12 19,1 C 19,9 C 19,1 C 0,0 C 68 % 1026,9 hPa 0,0 l/m 12,6 km/h (3 Bft) O-NO 67 13,1 C 16,8 C 36,9 km/h (5 Bft)
22.08.2019 12:10 19,0 C 19,9 C 19,1 C 0,0 C 68 % 1026,9 hPa 0,0 l/m 14,5 km/h (3 Bft) NO 45 13,0 C 16,2 C 19,9 km/h (4 Bft)
22.08.2019 12:08 19,0 C 19,9 C 19,1 C 0,0 C 68 % 1026,9 hPa 0,0 l/m 14,5 km/h (3 Bft) NO 45 13,0 C 16,2 C 19,9 km/h (4 Bft)
22.08.2019 12:06 19,0 C 19,9 C 19,1 C 0,0 C 68 % 1026,9 hPa 0,0 l/m 14,5 km/h (3 Bft) NO 45 13,0 C 16,2 C 19,9 km/h (4 Bft)
22.08.2019 12:04 19,0 C 19,9 C 19,1 C 0,0 C 68 % 1026,7 hPa 0,0 l/m 14,5 km/h (3 Bft) NO 45 13,0 C 16,2 C 36,5 km/h (5 Bft)
22.08.2019 12:02 19,0 C 19,9 C 19,1 C 0,0 C 68 % 1026,7 hPa 0,0 l/m 14,5 km/h (3 Bft) NO 45 13,0 C 16,2 C 34,0 km/h (5 Bft)
22.08.2019 12:00 19,0 C 19,9 C 19,1 C 0,0 C 68 % 1026,7 hPa 0,0 l/m 14,2 km/h (3 Bft) NO 45 13,0 C 16,2 C 34,0 km/h (5 Bft)
22.08.2019 11:58 18,9 C 19,9 C 19,1 C 0,0 C 69 % 1026,7 hPa 0,0 l/m 11,9 km/h (2 Bft) NO 45 13,1 C 16,8 C 23,8 km/h (4 Bft)
22.08.2019 11:56 18,9 C 19,4 C 19,1 C 0,0 C 69 % 1026,7 hPa 0,0 l/m 10,8 km/h (2 Bft) N-NW 337 13,1 C 17,1 C 16,4 km/h (3 Bft)
22.08.2019 11:54 18,9 C 19,8 C 19,1 C 0,0 C 69 % 1026,7 hPa 0,0 l/m 8,9 km/h (2 Bft) NO 45 13,1 C 17,8 C 30,5 km/h (5 Bft)
22.08.2019 11:52 18,8 C 19,6 C 19,1 C 0,0 C 69 % 1026,7 hPa 0,0 l/m 7,1 km/h (2 Bft) N 360 13,0 C 18,5 C 23,2 km/h (4 Bft)
22.08.2019 11:50 18,8 C 19,5 C 19,0 C 0,0 C 70 % 1026,7 hPa 0,0 l/m 5,3 km/h (1 Bft) NO 45 13,2 C 18,8 C 13,5 km/h (3 Bft)
22.08.2019 11:48 18,8 C 19,4 C 19,0 C 0,0 C 70 % 1026,7 hPa 0,0 l/m 5,8 km/h (2 Bft) N 360 13,2 C 18,8 C 13,5 km/h (3 Bft)
22.08.2019 11:46 18,7 C 19,9 C 19,0 C 0,0 C 70 % 1026,7 hPa 0,0 l/m 5,6 km/h (1 Bft) N 360 13,1 C 18,7 C 10,4 km/h (2 Bft)
22.08.2019 11:44 18,6 C 20,1 C 19,0 C 0,0 C 70 % 1026,9 hPa 0,0 l/m 5,8 km/h (2 Bft) O 90 13,0 C 18,6 C 10,4 km/h (2 Bft)
22.08.2019 11:42 18,5 C 19,7 C 19,0 C 0,0 C 70 % 1026,9 hPa 0,0 l/m 6,3 km/h (2 Bft) O 90 12,9 C 18,5 C 6,4 km/h (2 Bft)
22.08.2019 11:40 18,5 C 19,1 C 19,0 C 0,0 C 70 % 1026,9 hPa 0,0 l/m 6,8 km/h (2 Bft) N-NW 337 12,9 C 18,3 C 12,9 km/h (3 Bft)
22.08.2019 11:38 18,5 C 19,0 C 19,0 C 0,0 C 70 % 1026,9 hPa 0,0 l/m 7,1 km/h (2 Bft) NO 45 12,9 C 18,2 C 12,9 km/h (3 Bft)
22.08.2019 11:36 18,4 C 19,1 C 19,0 C 0,0 C 70 % 1026,9 hPa 0,0 l/m 7,4 km/h (2 Bft) O-NO 67 12,8 C 17,9 C 12,9 km/h (3 Bft)
22.08.2019 11:34 18,5 C 18,8 C 19,0 C 0,0 C 70 % 1026,9 hPa 0,0 l/m 8,0 km/h (2 Bft) NO 45 12,9 C 17,8 C 12,9 km/h (3 Bft)
22.08.2019 11:32 18,4 C 19,0 C 19,0 C 0,0 C 70 % 1026,9 hPa 0,0 l/m 8,0 km/h (2 Bft) NO 45 12,8 C 17,7 C 10,6 km/h (2 Bft)
22.08.2019 11:30 18,4 C 19,2 C 19,0 C 0,0 C 70 % 1026,9 hPa 0,0 l/m 7,9 km/h (2 Bft) O-NO 67 12,8 C 17,7 C 8,7 km/h (2 Bft)
22.08.2019 11:28 18,4 C 19,0 C 18,9 C 0,0 C 70 % 1026,9 hPa 0,0 l/m 7,4 km/h (2 Bft) O-NO 67 12,8 C 17,9 C 19,1 km/h (3 Bft)
22.08.2019 11:26 18,4 C 18,9 C 18,9 C 0,0 C 70 % 1026,9 hPa 0,0 l/m 7,4 km/h (2 Bft) O-NO 67 12,8 C 17,9 C 19,1 km/h (3 Bft)
22.08.2019 11:24 18,4 C 19,0 C 18,9 C 0,0 C 70 % 1026,9 hPa 0,0 l/m 6,3 km/h (2 Bft) O 90 12,8 C 18,4 C 15,6 km/h (3 Bft)
22.08.2019 11:22 18,4 C 19,0 C 18,9 C 0,0 C 70 % 1026,9 hPa 0,0 l/m 6,8 km/h (2 Bft) O-SO 112 12,8 C 18,2 C 15,6 km/h (3 Bft)
22.08.2019 11:20 18,4 C 19,0 C 18,9 C 0,0 C 70 % 1026,9 hPa 0,0 l/m 7,2 km/h (2 Bft) O-NO 67 12,8 C 18,0 C 11,0 km/h (2 Bft)
22.08.2019 11:18 18,4 C 19,0 C 18,9 C 0,0 C 70 % 1026,9 hPa 0,0 l/m 7,9 km/h (2 Bft) NO 45 12,8 C 17,7 C 8,3 km/h (2 Bft)
22.08.2019 11:16 18,4 C 19,0 C 18,9 C 0,0 C 70 % 1026,9 hPa 0,0 l/m 8,9 km/h (2 Bft) NO 45 12,8 C 17,3 C 10,2 km/h (2 Bft)
22.08.2019 11:14 18,5 C 19,0 C 18,9 C 0,0 C 69 % 1026,9 hPa 0,0 l/m 9,5 km/h (2 Bft) N-NW 337 12,7 C 17,2 C 23,9 km/h (4 Bft)
22.08.2019 11:12 18,6 C 19,2 C 18,9 C 0,0 C 69 % 1026,9 hPa 0,0 l/m 9,2 km/h (2 Bft) N 360 12,8 C 17,4 C 17,6 km/h (3 Bft)
22.08.2019 11:10 18,7 C 19,4 C 18,9 C 0,0 C 71 % 1026,9 hPa 0,0 l/m 9,0 km/h (2 Bft) N 360 13,3 C 17,6 C 16,0 km/h (3 Bft)
22.08.2019 11:08 18,5 C 19,6 C 18,9 C 0,0 C 71 % 1026,9 hPa 0,0 l/m 8,0 km/h (2 Bft) N-NO 22 13,1 C 17,8 C 16,0 km/h (3 Bft)
22.08.2019 11:06 17,9 C 20,1 C 18,8 C 0,0 C 72 % 1026,9 hPa 0,0 l/m 6,4 km/h (2 Bft) N-NO 22 12,8 C 17,9 C 14,7 km/h (3 Bft)
22.08.2019 11:04 17,9 C 19,8 C 18,8 C 0,0 C 72 % 1027,2 hPa 0,0 l/m 6,3 km/h (2 Bft) NO 45 12,8 C 17,9 C 15,3 km/h (3 Bft)
22.08.2019 11:02 17,9 C 19,8 C 18,8 C 0,0 C 72 % 1027,2 hPa 0,0 l/m 6,0 km/h (2 Bft) NO 45 12,8 C 17,9 C 13,9 km/h (3 Bft)
22.08.2019 11:00 17,7 C 19,1 C 18,8 C 0,0 C 72 % 1027,2 hPa 0,0 l/m 6,3 km/h (2 Bft) O-SO 112 12,6 C 17,7 C 13,9 km/h (3 Bft)
22.08.2019 10:58 17,6 C 18,4 C 18,8 C 0,0 C 72 % 1027,2 hPa 0,0 l/m 5,3 km/h (1 Bft) O 90 12,5 C 17,6 C 10,6 km/h (2 Bft)
22.08.2019 10:56 17,6 C 18,4 C 18,9 C 0,0 C 72 % 1027,2 hPa 0,0 l/m 5,0 km/h (1 Bft) W 270 12,5 C 17,6 C 7,3 km/h (2 Bft)
22.08.2019 10:54 17,6 C 18,6 C 18,9 C 0,0 C 72 % 1027,2 hPa 0,0 l/m 4,5 km/h (1 Bft) O 90 12,5 C 17,6 C 7,5 km/h (2 Bft)
22.08.2019 10:52 17,6 C 18,3 C 18,9 C 0,0 C 72 % 1027,2 hPa 0,0 l/m 3,9 km/h (1 Bft) O-SO 112 12,5 C 17,6 C 8,1 km/h (2 Bft)
22.08.2019 10:50 17,6 C 18,3 C 18,9 C 0,0 C 72 % 1027,2 hPa 0,0 l/m 3,7 km/h (1 Bft) O-SO 112 12,5 C 17,6 C 8,1 km/h (2 Bft)
22.08.2019 10:48 17,6 C 18,5 C 18,9 C 0,0 C 72 % 1027,2 hPa 0,0 l/m 3,1 km/h (1 Bft) O-SO 112 12,5 C 17,6 C 7,5 km/h (2 Bft)
22.08.2019 10:46 17,6 C 18,4 C 18,8 C 0,0 C 72 % 1027,2 hPa 0,0 l/m 3,1 km/h (1 Bft) O-SO 112 12,5 C 17,6 C 7,5 km/h (2 Bft)
22.08.2019 10:44 17,7 C 18,4 C 18,8 C 0,0 C 72 % 1027,4 hPa 0,0 l/m 3,4 km/h (1 Bft) S-SW 202 12,6 C 17,7 C 4,6 km/h (1 Bft)
22.08.2019 10:42 17,6 C 18,7 C 18,8 C 0,0 C 72 % 1027,4 hPa 0,0 l/m 3,5 km/h (1 Bft) O-SO 112 12,5 C 17,6 C 6,2 km/h (2 Bft)
22.08.2019 10:40 17,6 C 18,9 C 18,8 C 0,0 C 72 % 1027,4 hPa 0,0 l/m 3,2 km/h (1 Bft) SO 135 12,5 C 17,6 C 6,2 km/h (2 Bft)
22.08.2019 10:38 17,5 C 18,5 C 18,8 C 0,0 C 72 % 1027,4 hPa 0,0 l/m 4,0 km/h (1 Bft) S-SO 157 12,4 C 17,5 C 5,8 km/h (2 Bft)
22.08.2019 10:36 17,5 C 18,2 C 18,8 C 0,0 C 72 % 1027,4 hPa 0,0 l/m 4,3 km/h (1 Bft) S-SO 157 12,4 C 17,5 C 5,8 km/h (2 Bft)
22.08.2019 10:34 17,5 C 18,1 C 18,8 C 0,0 C 73 % 1027,4 hPa 0,0 l/m 4,5 km/h (1 Bft) NW 315 12,6 C 17,5 C 14,7 km/h (3 Bft)
22.08.2019 10:32 17,4 C 18,3 C 18,8 C 0,0 C 73 % 1027,4 hPa 0,0 l/m 4,5 km/h (1 Bft) SO 135 12,5 C 17,4 C 4,8 km/h (1 Bft)
22.08.2019 10:30 17,4 C 18,4 C 18,8 C 0,0 C 73 % 1027,4 hPa 0,0 l/m 4,7 km/h (1 Bft) S-SW 202 12,5 C 17,4 C 14,7 km/h (3 Bft)
22.08.2019 10:28 17,3 C 18,4 C 18,8 C 0,0 C 73 % 1027,4 hPa 0,0 l/m 4,7 km/h (1 Bft) O-NO 67 12,4 C 17,3 C 14,7 km/h (3 Bft)
22.08.2019 10:26 17,1 C 18,1 C 18,8 C 0,0 C 74 % 1027,4 hPa 0,0 l/m 3,9 km/h (1 Bft) S-SO 157 12,4 C 17,1 C 9,3 km/h (2 Bft)
22.08.2019 10:24 17,0 C 18,2 C 18,8 C 0,0 C 74 % 1027,4 hPa 0,0 l/m 3,5 km/h (1 Bft) NO 45 12,3 C 17,0 C 9,3 km/h (2 Bft)
22.08.2019 10:22 16,9 C 18,2 C 18,7 C 0,0 C 74 % 1027,4 hPa 0,0 l/m 3,1 km/h (1 Bft) NO 45 12,2 C 16,9 C 6,4 km/h (2 Bft)
22.08.2019 10:20 16,8 C 18,2 C 18,7 C 0,0 C 74 % 1027,4 hPa 0,0 l/m 3,1 km/h (1 Bft) NO 45 12,1 C 16,8 C 5,2 km/h (1 Bft)
22.08.2019 10:18 16,7 C 17,9 C 18,7 C 0,0 C 74 % 1027,4 hPa 0,0 l/m 2,7 km/h (1 Bft) O 90 12,0 C 16,7 C 5,2 km/h (1 Bft)
22.08.2019 10:16 16,7 C 17,6 C 18,7 C 0,0 C 74 % 1027,4 hPa 0,0 l/m 2,7 km/h (1 Bft) O-SO 112 12,0 C 16,7 C 5,0 km/h (1 Bft)
22.08.2019 10:14 16,6 C 17,7 C 18,7 C 0,0 C 74 % 1027,4 hPa 0,0 l/m 2,1 km/h (1 Bft) O-SO 112 11,9 C 16,6 C 4,2 km/h (1 Bft)
22.08.2019 10:12 16,4 C 17,7 C 18,7 C 0,0 C 75 % 1027,4 hPa 0,0 l/m 1,6 km/h (1 Bft) O-SO 112 12,0 C 16,4 C 4,2 km/h (1 Bft)
22.08.2019 10:10 16,4 C 17,6 C 18,7 C 0,0 C 75 % 1027,4 hPa 0,0 l/m 1,1 km/h (1 Bft) SO 135 12,0 C 16,4 C 3,5 km/h (1 Bft)
22.08.2019 10:08 16,3 C 17,6 C 18,7 C 0,0 C 75 % 1027,4 hPa 0,0 l/m 0,8 km/h (0 Bft) NO 45 11,9 C 16,3 C 3,5 km/h (1 Bft)
22.08.2019 10:06 16,3 C 17,5 C 18,7 C 0,0 C 75 % 1027,4 hPa 0,0 l/m 0,8 km/h (0 Bft) O-SO 112 11,9 C 16,3 C 3,5 km/h (1 Bft)
22.08.2019 10:04 16,2 C 17,0 C 18,7 C 0,0 C 75 % 1027,2 hPa 0,0 l/m 1,3 km/h (1 Bft) O 90 11,8 C 16,2 C 0,0 km/h (0 Bft)
22.08.2019 10:02 16,2 C 17,0 C 18,7 C 0,0 C 75 % 1027,2 hPa 0,0 l/m 1,4 km/h (1 Bft) NO 45 11,8 C 16,2 C 0,0 km/h (0 Bft)
22.08.2019 10:00 16,1 C 17,2 C 18,7 C 0,0 C 75 % 1027,2 hPa 0,0 l/m 1,6 km/h (1 Bft) O-NO 67 11,7 C 16,1 C 0,0 km/h (0 Bft)
22.08.2019 09:58 16,1 C 17,2 C 18,7 C 0,0 C 75 % 1027,2 hPa 0,0 l/m 1,9 km/h (1 Bft) SW 225 11,7 C 16,1 C 3,1 km/h (1 Bft)
22.08.2019 09:56 16,1 C 17,1 C 18,7 C 0,0 C 75 % 1027,2 hPa 0,0 l/m 1,9 km/h (1 Bft) SW 225 11,7 C 16,1 C 5,4 km/h (1 Bft)
22.08.2019 09:54 16,0 C 16,7 C 18,7 C 0,0 C 75 % 1027,2 hPa 0,0 l/m 1,6 km/h (1 Bft) O-SO 112 11,6 C 16,0 C 5,4 km/h (1 Bft)
22.08.2019 09:52 16,0 C 16,8 C 18,8 C 0,0 C 75 % 1027,2 hPa 0,0 l/m 1,0 km/h (0 Bft) SO 135 11,6 C 16,0 C 0,0 km/h (0 Bft)
22.08.2019 09:50 16,0 C 16,8 C 18,8 C 0,0 C 76 % 1027,2 hPa 0,0 l/m 1,0 km/h (0 Bft) SO 135 11,8 C 16,0 C 4,6 km/h (1 Bft)
22.08.2019 09:48 16,0 C 17,0 C 18,8 C 0,0 C 76 % 1027,2 hPa 0,0 l/m 1,1 km/h (1 Bft) O-SO 112 11,8 C 16,0 C 4,6 km/h (1 Bft)
22.08.2019 09:46 15,9 C 17,1 C 18,7 C 0,0 C 77 % 1027,2 hPa 0,0 l/m 1,3 km/h (1 Bft) O-NO 67 11,9 C 15,9 C 0,0 km/h (0 Bft)
22.08.2019 09:44 15,8 C 17,3 C 18,7 C 0,0 C 77 % 1027,2 hPa 0,0 l/m 1,6 km/h (1 Bft) SW 225 11,8 C 15,8 C 0,0 km/h (0 Bft)
22.08.2019 09:42 15,7 C 17,0 C 18,7 C 0,0 C 77 % 1027,2 hPa 0,0 l/m 1,9 km/h (1 Bft) SO 135 11,7 C 15,7 C 1,9 km/h (1 Bft)
22.08.2019 09:40 15,7 C 16,6 C 18,7 C 0,0 C 77 % 1027,2 hPa 0,0 l/m 2,4 km/h (1 Bft) O-SO 112 11,7 C 15,7 C 2,7 km/h (1 Bft)
22.08.2019 09:38 15,6 C 16,6 C 18,7 C 0,0 C 77 % 1027,2 hPa 0,0 l/m 2,4 km/h (1 Bft) O-SO 112 11,6 C 15,6 C 4,4 km/h (1 Bft)
22.08.2019 09:36 15,6 C 16,5 C 18,7 C 0,0 C 77 % 1027,2 hPa 0,0 l/m 1,9 km/h (1 Bft) O-SO 112 11,6 C 15,6 C 4,4 km/h (1 Bft)
22.08.2019 09:34 15,6 C 16,4 C 18,7 C 0,0 C 77 % 1027,2 hPa 0,0 l/m 1,9 km/h (1 Bft) O-SO 112 11,6 C 15,6 C 3,5 km/h (1 Bft)
22.08.2019 09:32 15,5 C 16,3 C 18,7 C 0,0 C 77 % 1027,2 hPa 0,0 l/m 2,1 km/h (1 Bft) SO 135 11,5 C 15,5 C 5,2 km/h (1 Bft)
22.08.2019 09:30 15,5 C 16,2 C 18,7 C 0,0 C 78 % 1027,2 hPa 0,0 l/m 1,9 km/h (1 Bft) S-SO 157 11,7 C 15,5 C 5,2 km/h (1 Bft)
22.08.2019 09:28 15,5 C 16,2 C 18,7 C 0,0 C 78 % 1027,2 hPa 0,0 l/m 1,6 km/h (1 Bft) S-SO 157 11,7 C 15,5 C 3,3 km/h (1 Bft)
22.08.2019 09:26 15,6 C 16,1 C 18,7 C 0,0 C 78 % 1027,2 hPa 0,0 l/m 1,4 km/h (1 Bft) S-SO 157 11,8 C 15,6 C 3,5 km/h (1 Bft)
22.08.2019 09:24 15,6 C 16,2 C 18,7 C 0,0 C 78 % 1027,0 hPa 0,0 l/m 1,4 km/h (1 Bft) SO 135 11,8 C 15,6 C 3,5 km/h (1 Bft)
22.08.2019 09:22 15,6 C 16,2 C 18,7 C 0,0 C 78 % 1027,0 hPa 0,0 l/m 1,1 km/h (1 Bft) SO 135 11,8 C 15,6 C 2,7 km/h (1 Bft)
22.08.2019 09:20 15,5 C 16,2 C 18,7 C 0,0 C 78 % 1027,0 hPa 0,0 l/m 1,1 km/h (1 Bft) S-SO 157 11,7 C 15,5 C 2,9 km/h (1 Bft)
22.08.2019 09:18 15,5 C 16,2 C 18,7 C 0,0 C 78 % 1027,0 hPa 0,0 l/m 0,8 km/h (0 Bft) NO 45 11,7 C 15,5 C 2,9 km/h (1 Bft)
22.08.2019 09:16 15,5 C 16,3 C 18,7 C 0,0 C 78 % 1027,0 hPa 0,0 l/m 0,6 km/h (0 Bft) NO 45 11,7 C 15,5 C 2,3 km/h (1 Bft)
22.08.2019 09:14 15,4 C 16,2 C 18,7 C 0,0 C 78 % 1027,0 hPa 0,0 l/m 0,5 km/h (0 Bft) SO 135 11,6 C 15,4 C 2,7 km/h (1 Bft)
22.08.2019 09:12 15,4 C 16,2 C 18,7 C 0,0 C 79 % 1027,0 hPa 0,0 l/m 0,6 km/h (0 Bft) O-NO 67 11,8 C 15,4 C 2,7 km/h (1 Bft)
22.08.2019 09:10 15,4 C 16,2 C 18,7 C 0,0 C 79 % 1027,0 hPa 0,0 l/m 0,3 km/h (0 Bft) O-SO 112 11,8 C 15,4 C 2,7 km/h (1 Bft)
22.08.2019 09:08 15,3 C 16,2 C 18,7 C 0,0 C 79 % 1027,0 hPa 0,0 l/m 0,3 km/h (0 Bft) SO 135 11,7 C 15,3 C 0,0 km/h (0 Bft)
22.08.2019 09:06 15,3 C 16,4 C 18,7 C 0,0 C 79 % 1027,0 hPa 0,0 l/m 0,3 km/h (0 Bft) SO 135 11,7 C 15,3 C 2,1 km/h (1 Bft)
22.08.2019 09:04 15,2 C 16,5 C 18,7 C 0,0 C 79 % 1027,2 hPa 0,0 l/m 0,3 km/h (0 Bft) N-NW 337 11,6 C 15,2 C 2,1 km/h (1 Bft)
22.08.2019 09:02 15,2 C 16,5 C 18,7 C 0,0 C 79 % 1027,2 hPa 0,0 l/m 0,0 km/h (0 Bft) NO 45 11,6 C 15,2 C 0,0 km/h (0 Bft)
22.08.2019 09:00 15,1 C 16,4 C 18,6 C 0,0 C 79 % 1027,2 hPa 0,0 l/m 0,0 km/h (0 Bft) NW 315 11,5 C 15,1 C 0,0 km/h (0 Bft)
22.08.2019 08:58 15,0 C 16,3 C 18,6 C 0,0 C 79 % 1027,2 hPa 0,0 l/m 0,0 km/h (0 Bft) NO 45 11,4 C 15,0 C 0,0 km/h (0 Bft)
22.08.2019 08:56 15,0 C 16,3 C 18,6 C 0,0 C 79 % 1027,2 hPa 0,0 l/m 0,0 km/h (0 Bft) O-SO 112 11,4 C 15,0 C 0,0 km/h (0 Bft)
22.08.2019 08:54 14,9 C 16,0 C 18,6 C 0,0 C 79 % 1027,2 hPa 0,0 l/m 0,0 km/h (0 Bft) O-SO 112 11,3 C 14,9 C 0,0 km/h (0 Bft)
22.08.2019 08:52 14,8 C 16,1 C 18,6 C 0,0 C 79 % 1027,2 hPa 0,0 l/m 0,0 km/h (0 Bft) N 360 11,2 C 14,8 C 0,0 km/h (0 Bft)
22.08.2019 08:50 14,8 C 15,9 C 18,6 C 0,0 C 80 % 1027,2 hPa 0,0 l/m 0,0 km/h (0 Bft) O-SO 112 11,4 C 14,8 C 0,0 km/h (0 Bft)
22.08.2019 08:48 14,8 C 15,8 C 18,7 C 0,0 C 80 % 1027,2 hPa 0,0 l/m 0,0 km/h (0 Bft) SO 135 11,4 C 14,8 C 0,0 km/h (0 Bft)
22.08.2019 08:46 14,7 C 15,6 C 18,7 C 0,0 C 80 % 1027,2 hPa 0,0 l/m 0,0 km/h (0 Bft) SO 135 11,3 C 14,7 C 0,0 km/h (0 Bft)
22.08.2019 08:44 14,7 C 15,6 C 18,7 C 0,0 C 80 % 1027,5 hPa 0,0 l/m 0,0 km/h (0 Bft) SO 135 11,3 C 14,7 C 0,0 km/h (0 Bft)
22.08.2019 08:42 14,7 C 15,4 C 18,7 C 0,0 C 80 % 1027,5 hPa 0,0 l/m 0,2 km/h (0 Bft) O-NO 67 11,3 C 14,7 C 0,0 km/h (0 Bft)
22.08.2019 08:40 14,7 C 15,5 C 18,7 C 0,0 C 80 % 1027,5 hPa 0,0 l/m 0,3 km/h (0 Bft) SO 135 11,3 C 14,7 C 0,0 km/h (0 Bft)
22.08.2019 08:38 14,7 C 15,5 C 18,7 C 0,0 C 80 % 1027,5 hPa 0,0 l/m 0,5 km/h (0 Bft) N-NW 337 11,3 C 14,7 C 0,0 km/h (0 Bft)
22.08.2019 08:36 14,6 C 15,6 C 18,7 C 0,0 C 80 % 1027,5 hPa 0,0 l/m 0,5 km/h (0 Bft) N 360 11,2 C 14,6 C 0,0 km/h (0 Bft)
22.08.2019 08:34 14,6 C 15,6 C 18,7 C 0,0 C 80 % 1027,5 hPa 0,0 l/m 0,6 km/h (0 Bft) S-SO 157 11,2 C 14,6 C 0,0 km/h (0 Bft)
22.08.2019 08:32 14,5 C 15,5 C 18,7 C 0,0 C 80 % 1027,5 hPa 0,0 l/m 0,6 km/h (0 Bft) O-SO 112 11,1 C 14,5 C 2,1 km/h (1 Bft)
22.08.2019 08:30 14,5 C 15,2 C 18,7 C 0,0 C 80 % 1027,5 hPa 0,0 l/m 0,3 km/h (0 Bft) O-NO 67 11,1 C 14,5 C 2,1 km/h (1 Bft)
22.08.2019 08:28 14,5 C 15,2 C 18,7 C 0,0 C 80 % 1027,5 hPa 0,0 l/m 0,3 km/h (0 Bft) O-SO 112 11,1 C 14,5 C 1,9 km/h (1 Bft)
22.08.2019 08:26 14,4 C 15,2 C 18,7 C 0,0 C 80 % 1027,5 hPa 0,0 l/m 0,3 km/h (0 Bft) O-SO 112 11,0 C 14,4 C 2,5 km/h (1 Bft)
22.08.2019 08:24 14,4 C 15,2 C 18,7 C 0,0 C 80 % 1027,8 hPa 0,0 l/m 0,2 km/h (0 Bft) O-SO 112 11,0 C 14,4 C 2,5 km/h (1 Bft)
22.08.2019 08:22 14,4 C 15,1 C 18,7 C 0,0 C 80 % 1027,8 hPa 0,0 l/m 0,2 km/h (0 Bft) W-NW 292 11,0 C 14,4 C 0,0 km/h (0 Bft)
22.08.2019 08:20 14,3 C 15,1 C 18,7 C 0,0 C 80 % 1027,8 hPa 0,0 l/m 0,2 km/h (0 Bft) S-SO 157 10,9 C 14,3 C 0,0 km/h (0 Bft)
22.08.2019 08:18 14,3 C 15,0 C 18,7 C 0,0 C 80 % 1027,8 hPa 0,0 l/m 0,2 km/h (0 Bft) S-SO 157 10,9 C 14,3 C 0,0 km/h (0 Bft)
22.08.2019 08:16 14,3 C 15,0 C 18,7 C 0,0 C 80 % 1027,8 hPa 0,0 l/m 0,2 km/h (0 Bft) S-SO 157 10,9 C 14,3 C 0,0 km/h (0 Bft)
22.08.2019 08:14 14,3 C 14,9 C 18,7 C 0,0 C 80 % 1027,8 hPa 0,0 l/m 0,2 km/h (0 Bft) O-SO 112 10,9 C 14,3 C 0,0 km/h (0 Bft)
22.08.2019 08:12 14,3 C 14,9 C 18,7 C 0,0 C 80 % 1027,8 hPa 0,0 l/m 0,3 km/h (0 Bft) SO 135 10,9 C 14,3 C 0,0 km/h (0 Bft)
22.08.2019 08:10 14,2 C 14,9 C 18,7 C 0,0 C 80 % 1027,8 hPa 0,0 l/m 0,3 km/h (0 Bft) SW 225 10,8 C 14,2 C 0,0 km/h (0 Bft)
22.08.2019 08:08 14,2 C 14,8 C 18,7 C 0,0 C 80 % 1027,8 hPa 0,0 l/m 0,3 km/h (0 Bft) SO 135 10,8 C 14,2 C 0,0 km/h (0 Bft)
22.08.2019 08:06 14,2 C 14,9 C 18,7 C 0,0 C 80 % 1027,8 hPa 0,0 l/m 0,3 km/h (0 Bft) N 360 10,8 C 14,2 C 0,0 km/h (0 Bft)
22.08.2019 08:04 14,1 C 14,9 C 18,7 C 0,0 C 80 % 1027,6 hPa 0,0 l/m 0,2 km/h (0 Bft) O-NO 67 10,7 C 14,1 C 1,9 km/h (1 Bft)
22.08.2019 08:02 14,1 C 14,9 C 18,7 C 0,0 C 80 % 1027,6 hPa 0,0 l/m 0,2 km/h (0 Bft) O 90 10,7 C 14,1 C 1,9 km/h (1 Bft)
22.08.2019 08:00 14,1 C 14,9 C 18,7 C 0,0 C 80 % 1027,6 hPa 0,0 l/m 0,2 km/h (0 Bft) O-NO 67 10,7 C 14,1 C 0,0 km/h (0 Bft)
22.08.2019 07:58 14,1 C 14,7 C 18,7 C 0,0 C 80 % 1027,6 hPa 0,0 l/m 0,2 km/h (0 Bft) O-SO 112 10,7 C 14,1 C 0,0 km/h (0 Bft)
22.08.2019 07:56 14,1 C 14,7 C 18,7 C 0,0 C 80 % 1027,6 hPa 0,0 l/m 0,3 km/h (0 Bft) O-SO 112 10,7 C 14,1 C 0,0 km/h (0 Bft)
22.08.2019 07:54 14,0 C 14,7 C 18,7 C 0,0 C 80 % 1027,6 hPa 0,0 l/m 0,3 km/h (0 Bft) SO 135 10,6 C 14,0 C 2,3 km/h (1 Bft)
22.08.2019 07:52 14,0 C 14,8 C 18,7 C 0,0 C 80 % 1027,6 hPa 0,0 l/m 0,2 km/h (0 Bft) SO 135 10,6 C 14,0 C 2,3 km/h (1 Bft)
22.08.2019 07:50 14,0 C 14,6 C 18,7 C 0,0 C 80 % 1027,6 hPa 0,0 l/m 0,2 km/h (0 Bft) N-NO 22 10,6 C 14,0 C 0,0 km/h (0 Bft)
22.08.2019 07:48 14,0 C 14,6 C 18,7 C 0,0 C 80 % 1027,6 hPa 0,0 l/m 0,2 km/h (0 Bft) O-SO 112 10,6 C 14,0 C 0,0 km/h (0 Bft)
22.08.2019 07:46 14,0 C 14,6 C 18,7 C 0,0 C 80 % 1027,6 hPa 0,0 l/m 0,2 km/h (0 Bft) O-SO 112 10,6 C 14,0 C 0,0 km/h (0 Bft)
22.08.2019 07:44 14,0 C 14,6 C 18,7 C 0,0 C 80 % 1027,7 hPa 0,0 l/m 0,3 km/h (0 Bft) SO 135 10,6 C 14,0 C 0,0 km/h (0 Bft)
22.08.2019 07:42 14,0 C 14,7 C 18,7 C 0,0 C 80 % 1027,7 hPa 0,0 l/m 0,3 km/h (0 Bft) SO 135 10,6 C 14,0 C 0,0 km/h (0 Bft)
22.08.2019 07:40 14,0 C 14,8 C 18,7 C 0,0 C 80 % 1027,7 hPa 0,0 l/m 0,3 km/h (0 Bft) SO 135 10,6 C 14,0 C 0,0 km/h (0 Bft)
22.08.2019 07:38 14,0 C 14,8 C 18,7 C 0,0 C 80 % 1027,7 hPa 0,0 l/m 0,3 km/h (0 Bft) O-NO 67 10,6 C 14,0 C 0,0 km/h (0 Bft)
22.08.2019 07:36 13,9 C 14,7 C 18,7 C 0,0 C 81 % 1027,7 hPa 0,0 l/m 0,3 km/h (0 Bft) O-NO 67 10,7 C 13,9 C 2,3 km/h (1 Bft)
22.08.2019 07:34 13,9 C 14,6 C 18,7 C 0,0 C 81 % 1027,7 hPa 0,0 l/m 0,2 km/h (0 Bft) O-NO 67 10,7 C 13,9 C 2,3 km/h (1 Bft)
22.08.2019 07:32 13,8 C 14,6 C 18,7 C 0,0 C 81 % 1027,7 hPa 0,0 l/m 0,2 km/h (0 Bft) O-NO 67 10,6 C 13,8 C 2,7 km/h (1 Bft)
22.08.2019 07:30 13,8 C 14,5 C 18,7 C 0,0 C 81 % 1027,7 hPa 0,0 l/m 0,2 km/h (0 Bft) NO 45 10,6 C 13,8 C 2,7 km/h (1 Bft)
22.08.2019 07:28 13,8 C 14,6 C 18,7 C 0,0 C 81 % 1027,7 hPa 0,0 l/m 0,0 km/h (0 Bft) S-SW 202 10,6 C 13,8 C 0,0 km/h (0 Bft)
22.08.2019 07:26 13,8 C 14,7 C 18,7 C 0,0 C 81 % 1027,7 hPa 0,0 l/m 0,0 km/h (0 Bft) W-SW 247 10,6 C 13,8 C 0,0 km/h (0 Bft)
22.08.2019 07:24 13,8 C 14,7 C 18,7 C 0,0 C 81 % 1027,6 hPa 0,0 l/m 0,0 km/h (0 Bft) SW 225 10,6 C 13,8 C 0,0 km/h (0 Bft)
22.08.2019 07:22 13,7 C 14,7 C 18,7 C 0,0 C 81 % 1027,6 hPa 0,0 l/m 0,0 km/h (0 Bft) W-SW 247 10,5 C 13,7 C 0,0 km/h (0 Bft)
22.08.2019 07:20 13,7 C 14,7 C 18,7 C 0,0 C 81 % 1027,6 hPa 0,0 l/m 0,0 km/h (0 Bft) NW 315 10,5 C 13,7 C 0,0 km/h (0 Bft)
22.08.2019 07:18 13,7 C 14,7 C 18,7 C 0,0 C 81 % 1027,6 hPa 0,0 l/m 0,0 km/h (0 Bft) W-SW 247 10,5 C 13,7 C 0,0 km/h (0 Bft)
22.08.2019 07:16 13,7 C 14,6 C 18,7 C 0,0 C 81 % 1027,6 hPa 0,0 l/m 0,0 km/h (0 Bft) S 180 10,5 C 13,7 C 0,0 km/h (0 Bft)
22.08.2019 07:14 13,7 C 14,5 C 18,7 C 0,0 C 81 % 1027,6 hPa 0,0 l/m 0,0 km/h (0 Bft) S-SW 202 10,5 C 13,7 C 0,0 km/h (0 Bft)
22.08.2019 07:12 13,7 C 14,3 C 18,7 C 0,0 C 81 % 1027,6 hPa 0,0 l/m 0,0 km/h (0 Bft) S-SO 157 10,5 C 13,7 C 0,0 km/h (0 Bft)
22.08.2019 07:10 13,7 C 14,3 C 18,7 C 0,0 C 81 % 1027,6 hPa 0,0 l/m 0,0 km/h (0 Bft) S-SO 157 10,5 C 13,7 C 0,0 km/h (0 Bft)
22.08.2019 07:08 13,6 C 14,3 C 18,7 C 0,0 C 81 % 1027,6 hPa 0,0 l/m 0,0 km/h (0 Bft) SO 135 10,4 C 13,6 C 0,0 km/h (0 Bft)
22.08.2019 07:06 13,6 C 14,3 C 18,7 C 0,0 C 81 % 1027,6 hPa 0,0 l/m 0,0 km/h (0 Bft) O-SO 112 10,4 C 13,6 C 0,0 km/h (0 Bft)
22.08.2019 07:04 13,6 C 14,5 C 18,7 C 0,0 C 81 % 1027,7 hPa 0,0 l/m 0,2 km/h (0 Bft) SO 135 10,4 C 13,6 C 0,0 km/h (0 Bft)
22.08.2019 07:02 13,6 C 14,5 C 18,7 C 0,0 C 81 % 1027,7 hPa 0,0 l/m 0,6 km/h (0 Bft) O-SO 112 10,4 C 13,6 C 0,0 km/h (0 Bft)
22.08.2019 07:00 13,5 C 14,5 C 18,7 C 0,0 C 81 % 1027,7 hPa 0,0 l/m 1,1 km/h (1 Bft) SW 225 10,3 C 13,5 C 0,0 km/h (0 Bft)
22.08.2019 06:58 13,6 C 14,3 C 18,7 C 0,0 C 81 % 1027,7 hPa 0,0 l/m 1,1 km/h (1 Bft) S-SO 157 10,4 C 13,6 C 0,0 km/h (0 Bft)
22.08.2019 06:56 13,5 C 14,2 C 18,7 C 0,0 C 81 % 1027,7 hPa 0,0 l/m 1,3 km/h (1 Bft) S 180 10,3 C 13,5 C 1,9 km/h (1 Bft)
22.08.2019 06:54 13,5 C 14,0 C 18,7 C 0,0 C 81 % 1027,7 hPa 0,0 l/m 1,4 km/h (1 Bft) S-SO 157 10,3 C 13,5 C 4,1 km/h (1 Bft)
22.08.2019 06:52 13,5 C 14,1 C 18,7 C 0,0 C 81 % 1027,7 hPa 0,0 l/m 1,3 km/h (1 Bft) O-SO 112 10,3 C 13,5 C 4,1 km/h (1 Bft)
22.08.2019 06:50 13,5 C 14,0 C 18,7 C 0,0 C 81 % 1027,7 hPa 0,0 l/m 1,0 km/h (0 Bft) O-NO 67 10,3 C 13,5 C 2,7 km/h (1 Bft)
22.08.2019 06:48 13,5 C 14,0 C 18,7 C 0,0 C 81 % 1027,7 hPa 0,0 l/m 1,1 km/h (1 Bft) O-SO 112 10,3 C 13,5 C 2,1 km/h (1 Bft)
22.08.2019 06:46 13,5 C 14,1 C 18,7 C 0,0 C 81 % 1027,7 hPa 0,0 l/m 1,6 km/h (1 Bft) O-SO 112 10,3 C 13,5 C 2,1 km/h (1 Bft)
22.08.2019 06:44 13,5 C 14,3 C 18,7 C 0,0 C 81 % 1027,6 hPa 0,0 l/m 1,8 km/h (1 Bft) W 270 10,3 C 13,5 C 6,4 km/h (2 Bft)
22.08.2019 06:42 13,5 C 14,2 C 18,7 C 0,0 C 81 % 1027,6 hPa 0,0 l/m 1,6 km/h (1 Bft) O-NO 67 10,3 C 13,5 C 3,3 km/h (1 Bft)
22.08.2019 06:40 13,4 C 14,3 C 18,7 C 0,0 C 81 % 1027,6 hPa 0,0 l/m 1,6 km/h (1 Bft) NW 315 10,2 C 13,4 C 2,5 km/h (1 Bft)
22.08.2019 06:38 13,4 C 14,3 C 18,7 C 0,0 C 81 % 1027,6 hPa 0,0 l/m 1,6 km/h (1 Bft) NO 45 10,2 C 13,4 C 3,7 km/h (1 Bft)
22.08.2019 06:36 13,3 C 14,3 C 18,7 C 0,0 C 81 % 1027,6 hPa 0,0 l/m 1,1 km/h (1 Bft) W-SW 247 10,1 C 13,3 C 3,7 km/h (1 Bft)
22.08.2019 06:34 13,3 C 14,2 C 18,7 C 0,0 C 81 % 1027,6 hPa 0,0 l/m 0,8 km/h (0 Bft) W 270 10,1 C 13,3 C 3,5 km/h (1 Bft)
22.08.2019 06:32 13,3 C 14,2 C 18,7 C 0,0 C 81 % 1027,6 hPa 0,0 l/m 0,6 km/h (0 Bft) W-SW 247 10,1 C 13,3 C 2,7 km/h (1 Bft)
22.08.2019 06:30 13,2 C 14,1 C 18,7 C 0,0 C 81 % 1027,6 hPa 0,0 l/m 0,5 km/h (0 Bft) SO 135 10,0 C 13,2 C 2,7 km/h (1 Bft)
22.08.2019 06:28 13,2 C 14,1 C 18,7 C 0,0 C 81 % 1027,6 hPa 0,0 l/m 0,2 km/h (0 Bft) N-NW 337 10,0 C 13,2 C 0,0 km/h (0 Bft)
22.08.2019 06:26 13,2 C 14,2 C 18,7 C 0,0 C 81 % 1027,6 hPa 0,0 l/m 0,0 km/h (0 Bft) W-SW 247 10,0 C 13,2 C 0,0 km/h (0 Bft)
22.08.2019 06:24 13,2 C 14,2 C 18,7 C 0,0 C 81 % 1027,9 hPa 0,0 l/m 0,0 km/h (0 Bft) W-SW 247 10,0 C 13,2 C 0,0 km/h (0 Bft)
22.08.2019 06:22 13,2 C 14,2 C 18,7 C 0,0 C 81 % 1027,9 hPa 0,0 l/m 0,0 km/h (0 Bft) W-SW 247 10,0 C 13,2 C 0,0 km/h (0 Bft)
22.08.2019 06:20 13,1 C 14,1 C 18,7 C 0,0 C 81 % 1027,9 hPa 0,0 l/m 0,0 km/h (0 Bft) W-SW 247 9,9 C 13,1 C 2,1 km/h (1 Bft)
22.08.2019 06:18 13,1 C 14,0 C 18,7 C 0,0 C 81 % 1027,9 hPa 0,0 l/m 0,0 km/h (0 Bft) W-SW 247 9,9 C 13,1 C 2,1 km/h (1 Bft)
22.08.2019 06:16 13,1 C 14,0 C 18,7 C 0,0 C 81 % 1027,9 hPa 0,0 l/m 0,0 km/h (0 Bft) SW 225 9,9 C 13,1 C 0,0 km/h (0 Bft)
22.08.2019 06:14 13,1 C 13,8 C 18,7 C 0,0 C 81 % 1027,9 hPa 0,0 l/m 0,0 km/h (0 Bft) S 180 9,9 C 13,1 C 0,0 km/h (0 Bft)
22.08.2019 06:12 13,1 C 13,7 C 18,7 C 0,0 C 81 % 1027,9 hPa 0,0 l/m 0,0 km/h (0 Bft) O-SO 112 9,9 C 13,1 C 0,0 km/h (0 Bft)
22.08.2019 06:10 13,0 C 13,7 C 18,7 C 0,0 C 81 % 1027,9 hPa 0,0 l/m 0,2 km/h (0 Bft) SO 135 9,8 C 13,0 C 0,0 km/h (0 Bft)
22.08.2019 06:08 13,0 C 13,7 C 18,7 C 0,0 C 81 % 1027,9 hPa 0,0 l/m 0,2 km/h (0 Bft) SO 135 9,8 C 13,0 C 0,0 km/h (0 Bft)
22.08.2019 06:06 13,0 C 13,7 C 18,7 C 0,0 C 81 % 1027,9 hPa 0,0 l/m 0,2 km/h (0 Bft) SO 135 9,8 C 13,0 C 0,0 km/h (0 Bft)
22.08.2019 06:04 13,0 C 13,7 C 18,7 C 0,0 C 81 % 1027,8 hPa 0,0 l/m 0,2 km/h (0 Bft) SO 135 9,8 C 13,0 C 0,0 km/h (0 Bft)
22.08.2019 06:02 13,0 C 13,7 C 18,7 C 0,0 C 81 % 1027,8 hPa 0,0 l/m 0,2 km/h (0 Bft) SO 135 9,8 C 13,0 C 0,0 km/h (0 Bft)
22.08.2019 06:00 13,0 C 13,7 C 18,8 C 0,0 C 81 % 1027,8 hPa 0,0 l/m 0,2 km/h (0 Bft) SO 135 9,8 C 13,0 C 0,0 km/h (0 Bft)
22.08.2019 05:56 13,0 C 13,7 C 18,8 C 0,0 C 81 % 1027,8 hPa 0,0 l/m 0,2 km/h (0 Bft) W 270 9,8 C 13,0 C 0,0 km/h (0 Bft)
22.08.2019 05:54 13,0 C 13,5 C 18,8 C 0,0 C 81 % 1027,8 hPa 0,0 l/m 0,5 km/h (0 Bft) S-SO 157 9,8 C 13,0 C 1,9 km/h (1 Bft)
22.08.2019 05:52 13,0 C 13,5 C 18,8 C 0,0 C 81 % 1027,8 hPa 0,0 l/m 0,6 km/h (0 Bft) SO 135 9,8 C 13,0 C 1,9 km/h (1 Bft)
22.08.2019 05:50 13,0 C 13,5 C 18,8 C 0,0 C 81 % 1027,8 hPa 0,0 l/m 0,6 km/h (0 Bft) SO 135 9,8 C 13,0 C 0,0 km/h (0 Bft)
22.08.2019 05:48 13,0 C 13,6 C 18,8 C 0,0 C 81 % 1027,8 hPa 0,0 l/m 0,6 km/h (0 Bft) O-SO 112 9,8 C 13,0 C 2,3 km/h (1 Bft)
22.08.2019 05:46 13,0 C 13,5 C 18,8 C 0,0 C 81 % 1027,8 hPa 0,0 l/m 0,6 km/h (0 Bft) NO 45 9,8 C 13,0 C 2,3 km/h (1 Bft)
22.08.2019 05:44 13,0 C 13,4 C 18,8 C 0,0 C 81 % 1027,8 hPa 0,0 l/m 0,5 km/h (0 Bft) NO 45 9,8 C 13,0 C 2,5 km/h (1 Bft)
22.08.2019 05:42 13,0 C 13,4 C 18,8 C 0,0 C 81 % 1027,8 hPa 0,0 l/m 0,3 km/h (0 Bft) N 360 9,8 C 13,0 C 2,5 km/h (1 Bft)
22.08.2019 05:40 13,0 C 13,5 C 18,8 C 0,0 C 81 % 1027,8 hPa 0,0 l/m 0,0 km/h (0 Bft) N-NO 22 9,8 C 13,0 C 0,0 km/h (0 Bft)
22.08.2019 05:38 13,0 C 13,7 C 18,8 C 0,0 C 81 % 1027,8 hPa 0,0 l/m 0,0 km/h (0 Bft) N 360 9,8 C 13,0 C 0,0 km/h (0 Bft)
22.08.2019 05:36 13,1 C 13,6 C 18,8 C 0,0 C 81 % 1027,8 hPa 0,0 l/m 0,2 km/h (0 Bft) S-SW 202 9,9 C 13,1 C 0,0 km/h (0 Bft)
22.08.2019 05:34 13,1 C 13,6 C 18,8 C 0,0 C 81 % 1027,8 hPa 0,0 l/m 0,2 km/h (0 Bft) S-SW 202 9,9 C 13,1 C 1,9 km/h (1 Bft)
22.08.2019 05:32 13,1 C 13,5 C 18,8 C 0,0 C 81 % 1027,8 hPa 0,0 l/m 0,3 km/h (0 Bft) SO 135 9,9 C 13,1 C 1,9 km/h (1 Bft)
22.08.2019 05:30 13,1 C 13,6 C 18,8 C 0,0 C 81 % 1027,8 hPa 0,0 l/m 0,2 km/h (0 Bft) O-SO 112 9,9 C 13,1 C 0,0 km/h (0 Bft)
22.08.2019 05:28 13,1 C 13,7 C 18,8 C 0,0 C 81 % 1027,8 hPa 0,0 l/m 0,2 km/h (0 Bft) O-NO 67 9,9 C 13,1 C 1,9 km/h (1 Bft)
22.08.2019 05:26 13,1 C 13,5 C 18,8 C 0,0 C 81 % 1027,8 hPa 0,0 l/m 0,2 km/h (0 Bft) NO 45 9,9 C 13,1 C 1,9 km/h (1 Bft)
22.08.2019 05:24 13,1 C 13,6 C 18,8 C 0,0 C 81 % 1027,9 hPa 0,0 l/m 0,0 km/h (0 Bft) O-NO 67 9,9 C 13,1 C 0,0 km/h (0 Bft)
22.08.2019 05:22 13,0 C 13,6 C 18,8 C 0,0 C 81 % 1027,9 hPa 0,0 l/m 0,0 km/h (0 Bft) N 360 9,8 C 13,0 C 0,0 km/h (0 Bft)
22.08.2019 05:20 13,0 C 13,5 C 18,8 C 0,0 C 81 % 1027,9 hPa 0,0 l/m 0,0 km/h (0 Bft) N-NW 337 9,8 C 13,0 C 0,0 km/h (0 Bft)
22.08.2019 05:18 13,0 C 13,5 C 18,8 C 0,0 C 81 % 1027,9 hPa 0,0 l/m 0,0 km/h (0 Bft) NW 315 9,8 C 13,0 C 0,0 km/h (0 Bft)
22.08.2019 05:16 13,0 C 13,5 C 18,8 C 0,0 C 81 % 1027,9 hPa 0,0 l/m 0,0 km/h (0 Bft) N-NW 337 9,8 C 13,0 C 0,0 km/h (0 Bft)
22.08.2019 05:14 13,0 C 13,6 C 18,8 C 0,0 C 81 % 1027,9 hPa 0,0 l/m 0,0 km/h (0 Bft) W-SW 247 9,8 C 13,0 C 0,0 km/h (0 Bft)
22.08.2019 05:12 13,0 C 13,7 C 18,8 C 0,0 C 81 % 1027,9 hPa 0,0 l/m 0,0 km/h (0 Bft) S-SW 202 9,8 C 13,0 C 0,0 km/h (0 Bft)
22.08.2019 05:10 13,0 C 13,7 C 18,8 C 0,0 C 81 % 1027,9 hPa 0,0 l/m 0,0 km/h (0 Bft) S-SW 202 9,8 C 13,0 C 0,0 km/h (0 Bft)
22.08.2019 05:08 13,0 C 13,6 C 18,8 C 0,0 C 81 % 1027,9 hPa 0,0 l/m 0,0 km/h (0 Bft) S-SO 157 9,8 C 13,0 C 0,0 km/h (0 Bft)
22.08.2019 05:06 13,0 C 13,7 C 18,8 C 0,0 C 81 % 1027,9 hPa 0,0 l/m 0,2 km/h (0 Bft) O-SO 112 9,8 C 13,0 C 0,0 km/h (0 Bft)
22.08.2019 05:04 13,0 C 13,5 C 18,8 C 0,0 C 81 % 1028,2 hPa 0,0 l/m 0,2 km/h (0 Bft) W-NW 292 9,8 C 13,0 C 0,0 km/h (0 Bft)
22.08.2019 05:02 13,0 C 13,5 C 18,8 C 0,0 C 81 % 1028,2 hPa 0,0 l/m 0,3 km/h (0 Bft) O-SO 112 9,8 C 13,0 C 0,0 km/h (0 Bft)
22.08.2019 05:00 13,0 C 13,5 C 18,8 C 0,0 C 81 % 1028,2 hPa 0,0 l/m 0,5 km/h (0 Bft) SO 135 9,8 C 13,0 C 0,0 km/h (0 Bft)
22.08.2019 04:58 13,0 C 13,5 C 18,8 C 0,0 C 81 % 1028,2 hPa 0,0 l/m 0,5 km/h (0 Bft) O-SO 112 9,8 C 13,0 C 0,0 km/h (0 Bft)
22.08.2019 04:56 13,0 C 13,6 C 18,8 C 0,0 C 81 % 1028,2 hPa 0,0 l/m 0,5 km/h (0 Bft) O-SO 112 9,8 C 13,0 C 1,9 km/h (1 Bft)
22.08.2019 04:54 13,0 C 13,5 C 18,8 C 0,0 C 81 % 1028,2 hPa 0,0 l/m 0,5 km/h (0 Bft) O 90 9,8 C 13,0 C 2,3 km/h (1 Bft)
22.08.2019 04:52 13,0 C 13,5 C 18,8 C 0,0 C 81 % 1028,2 hPa 0,0 l/m 0,3 km/h (0 Bft) NO 45 9,8 C 13,0 C 2,3 km/h (1 Bft)
22.08.2019 04:50 13,0 C 13,5 C 18,8 C 0,0 C 81 % 1028,2 hPa 0,0 l/m 0,2 km/h (0 Bft) NO 45 9,8 C 13,0 C 0,0 km/h (0 Bft)
22.08.2019 04:48 13,0 C 13,5 C 18,8 C 0,0 C 81 % 1028,2 hPa 0,0 l/m 0,0 km/h (0 Bft) SO 135 9,8 C 13,0 C 0,0 km/h (0 Bft)
22.08.2019 04:46 12,9 C 13,5 C 18,8 C 0,0 C 82 % 1028,2 hPa 0,0 l/m 0,0 km/h (0 Bft) O-NO 67 9,9 C 12,9 C 0,0 km/h (0 Bft)
22.08.2019 04:44 13,0 C 13,5 C 18,8 C 0,0 C 81 % 1028,0 hPa 0,0 l/m 0,0 km/h (0 Bft) N-NW 337 9,8 C 13,0 C 0,0 km/h (0 Bft)
22.08.2019 04:42 13,0 C 13,6 C 18,8 C 0,0 C 81 % 1028,0 hPa 0,0 l/m 0,0 km/h (0 Bft) N-NW 337 9,8 C 13,0 C 0,0 km/h (0 Bft)
22.08.2019 04:40 13,0 C 13,7 C 18,8 C 0,0 C 81 % 1028,0 hPa 0,0 l/m 0,2 km/h (0 Bft) NW 315 9,8 C 13,0 C 0,0 km/h (0 Bft)
22.08.2019 04:38 13,0 C 13,6 C 18,8 C 0,0 C 81 % 1028,0 hPa 0,0 l/m 0,5 km/h (0 Bft) W-SW 247 9,8 C 13,0 C 0,0 km/h (0 Bft)
22.08.2019 04:36 12,9 C 13,5 C 18,8 C 0,0 C 82 % 1028,0 hPa 0,0 l/m 0,6 km/h (0 Bft) NO 45 9,9 C 12,9 C 0,0 km/h (0 Bft)
22.08.2019 04:34 12,9 C 13,5 C 18,8 C 0,0 C 82 % 1028,0 hPa 0,0 l/m 1,0 km/h (0 Bft) O-NO 67 9,9 C 12,9 C 0,0 km/h (0 Bft)
22.08.2019 04:32 12,9 C 13,5 C 18,8 C 0,0 C 82 % 1028,0 hPa 0,0 l/m 1,0 km/h (0 Bft) NO 45 9,9 C 12,9 C 2,3 km/h (1 Bft)
22.08.2019 04:30 12,9 C 13,4 C 18,8 C 0,0 C 82 % 1028,0 hPa 0,0 l/m 1,0 km/h (0 Bft) O-NO 67 9,9 C 12,9 C 3,1 km/h (1 Bft)
22.08.2019 04:28 12,9 C 13,4 C 18,8 C 0,0 C 82 % 1028,0 hPa 0,0 l/m 0,8 km/h (0 Bft) NO 45 9,9 C 12,9 C 3,1 km/h (1 Bft)
22.08.2019 04:26 12,9 C 13,5 C 18,8 C 0,0 C 82 % 1028,0 hPa 0,0 l/m 1,0 km/h (0 Bft) NO 45 9,9 C 12,9 C 3,1 km/h (1 Bft)
22.08.2019 04:24 12,9 C 13,5 C 18,8 C 0,0 C 82 % 1028,1 hPa 0,0 l/m 1,0 km/h (0 Bft) NO 45 9,9 C 12,9 C 5,8 km/h (2 Bft)
22.08.2019 04:22 12,9 C 13,6 C 18,8 C 0,0 C 82 % 1028,1 hPa 0,0 l/m 1,1 km/h (1 Bft) N 360 9,9 C 12,9 C 0,0 km/h (0 Bft)
22.08.2019 04:20 12,9 C 13,4 C 18,8 C 0,0 C 82 % 1028,1 hPa 0,0 l/m 1,4 km/h (1 Bft) SO 135 9,9 C 12,9 C 0,0 km/h (0 Bft)
22.08.2019 04:18 12,9 C 13,4 C 18,8 C 0,0 C 82 % 1028,1 hPa 0,0 l/m 1,4 km/h (1 Bft) NW 315 9,9 C 12,9 C 5,8 km/h (2 Bft)
22.08.2019 04:16 12,9 C 13,5 C 18,9 C 0,0 C 82 % 1028,1 hPa 0,0 l/m 1,1 km/h (1 Bft) SO 135 9,9 C 12,9 C 5,8 km/h (2 Bft)
22.08.2019 04:14 12,9 C 13,4 C 18,9 C 0,0 C 81 % 1028,1 hPa 0,0 l/m 0,6 km/h (0 Bft) SO 135 9,7 C 12,9 C 3,1 km/h (1 Bft)
22.08.2019 04:12 12,9 C 13,3 C 18,9 C 0,0 C 81 % 1028,1 hPa 0,0 l/m 0,5 km/h (0 Bft) SO 135 9,7 C 12,9 C 2,1 km/h (1 Bft)
22.08.2019 04:10 12,9 C 13,4 C 18,9 C 0,0 C 81 % 1028,1 hPa 0,0 l/m 0,2 km/h (0 Bft) O-SO 112 9,7 C 12,9 C 2,1 km/h (1 Bft)
22.08.2019 04:08 12,8 C 13,6 C 18,8 C 0,0 C 81 % 1028,1 hPa 0,0 l/m 0,2 km/h (0 Bft) S-SO 157 9,6 C 12,8 C 0,0 km/h (0 Bft)
22.08.2019 04:06 12,8 C 13,6 C 18,9 C 0,0 C 81 % 1028,1 hPa 0,0 l/m 0,2 km/h (0 Bft) O-SO 112 9,6 C 12,8 C 0,0 km/h (0 Bft)
22.08.2019 04:04 12,8 C 13,5 C 18,9 C 0,0 C 81 % 1028,3 hPa 0,0 l/m 0,2 km/h (0 Bft) O 90 9,6 C 12,8 C 0,0 km/h (0 Bft)
22.08.2019 04:02 12,8 C 13,4 C 18,9 C 0,0 C 81 % 1028,3 hPa 0,0 l/m 0,2 km/h (0 Bft) NO 45 9,6 C 12,8 C 0,0 km/h (0 Bft)
22.08.2019 04:00 12,8 C 13,5 C 18,9 C 0,0 C 81 % 1028,3 hPa 0,0 l/m 0,2 km/h (0 Bft) N-NW 337 9,6 C 12,8 C 0,0 km/h (0 Bft)
22.08.2019 03:58 12,8 C 13,4 C 18,9 C 0,0 C 81 % 1028,3 hPa 0,0 l/m 0,0 km/h (0 Bft) NW 315 9,6 C 12,8 C 0,0 km/h (0 Bft)
22.08.2019 03:56 12,8 C 13,4 C 18,9 C 0,0 C 81 % 1028,3 hPa 0,0 l/m 0,0 km/h (0 Bft) NO 45 9,6 C 12,8 C 0,0 km/h (0 Bft)
22.08.2019 03:54 12,8 C 13,4 C 18,9 C 0,0 C 81 % 1028,3 hPa 0,0 l/m 0,0 km/h (0 Bft) NO 45 9,6 C 12,8 C 0,0 km/h (0 Bft)
22.08.2019 03:52 12,8 C 13,5 C 18,9 C 0,0 C 81 % 1028,3 hPa 0,0 l/m 0,0 km/h (0 Bft) O-SO 112 9,6 C 12,8 C 0,0 km/h (0 Bft)
22.08.2019 03:50 12,8 C 13,5 C 18,9 C 0,0 C 81 % 1028,3 hPa 0,0 l/m 0,0 km/h (0 Bft) SO 135 9,6 C 12,8 C 0,0 km/h (0 Bft)
22.08.2019 03:48 12,8 C 13,5 C 18,9 C 0,0 C 81 % 1028,3 hPa 0,0 l/m 0,0 km/h (0 Bft) O-SO 112 9,6 C 12,8 C 0,0 km/h (0 Bft)
22.08.2019 03:46 12,7 C 13,4 C 18,9 C 0,0 C 81 % 1028,3 hPa 0,0 l/m 0,2 km/h (0 Bft) O-NO 67 9,5 C 12,7 C 0,0 km/h (0 Bft)
22.08.2019 03:44 12,7 C 13,4 C 18,9 C 0,0 C 81 % 1028,4 hPa 0,0 l/m 0,2 km/h (0 Bft) O-SO 112 9,5 C 12,7 C 0,0 km/h (0 Bft)
22.08.2019 03:42 12,7 C 13,5 C 18,9 C 0,0 C 81 % 1028,4 hPa 0,0 l/m 0,2 km/h (0 Bft) SO 135 9,5 C 12,7 C 0,0 km/h (0 Bft)
22.08.2019 03:40 12,7 C 13,5 C 18,9 C 0,0 C 81 % 1028,4 hPa 0,0 l/m 0,2 km/h (0 Bft) SO 135 9,5 C 12,7 C 0,0 km/h (0 Bft)
22.08.2019 03:38 12,6 C 13,4 C 18,9 C 0,0 C 81 % 1028,4 hPa 0,0 l/m 0,2 km/h (0 Bft) O-NO 67 9,4 C 12,6 C 2,3 km/h (1 Bft)
22.08.2019 03:36 12,6 C 13,4 C 18,9 C 0,0 C 81 % 1028,4 hPa 0,0 l/m 0,2 km/h (0 Bft) O-NO 67 9,4 C 12,6 C 2,3 km/h (1 Bft)
22.08.2019 03:34 12,6 C 13,3 C 18,9 C 0,0 C 81 % 1028,4 hPa 0,0 l/m 0,0 km/h (0 Bft) O-SO 112 9,4 C 12,6 C 0,0 km/h (0 Bft)
22.08.2019 03:32 12,5 C 13,3 C 18,9 C 0,0 C 81 % 1028,4 hPa 0,0 l/m 0,0 km/h (0 Bft) O-SO 112 9,3 C 12,5 C 0,0 km/h (0 Bft)
22.08.2019 03:30 12,5 C 13,1 C 18,9 C 0,0 C 81 % 1028,4 hPa 0,0 l/m 0,0 km/h (0 Bft) S-SO 157 9,3 C 12,5 C 0,0 km/h (0 Bft)
22.08.2019 03:28 12,5 C 13,1 C 18,9 C 0,0 C 81 % 1028,4 hPa 0,0 l/m 0,0 km/h (0 Bft) SO 135 9,3 C 12,5 C 0,0 km/h (0 Bft)
22.08.2019 03:26 12,5 C 13,1 C 18,9 C 0,0 C 81 % 1028,4 hPa 0,0 l/m 0,0 km/h (0 Bft) SO 135 9,3 C 12,5 C 0,0 km/h (0 Bft)
22.08.2019 03:24 12,5 C 13,2 C 18,9 C 0,0 C 81 % 1028,4 hPa 0,0 l/m 0,0 km/h (0 Bft) S-SW 202 9,3 C 12,5 C 0,0 km/h (0 Bft)
22.08.2019 03:22 12,5 C 13,1 C 18,9 C 0,0 C 81 % 1028,4 hPa 0,0 l/m 0,0 km/h (0 Bft) W 270 9,3 C 12,5 C 0,0 km/h (0 Bft)
22.08.2019 03:20 12,6 C 12,9 C 18,9 C 0,0 C 81 % 1028,4 hPa 0,0 l/m 0,0 km/h (0 Bft) O-SO 112 9,4 C 12,6 C 0,0 km/h (0 Bft)
22.08.2019 03:18 12,6 C 12,9 C 18,9 C 0,0 C 81 % 1028,4 hPa 0,0 l/m 0,0 km/h (0 Bft) SO 135 9,4 C 12,6 C 0,0 km/h (0 Bft)
22.08.2019 03:16 12,6 C 13,1 C 18,9 C 0,0 C 81 % 1028,4 hPa 0,0 l/m 0,0 km/h (0 Bft) O-SO 112 9,4 C 12,6 C 0,0 km/h (0 Bft)
22.08.2019 03:14 12,6 C 13,2 C 18,9 C 0,0 C 81 % 1028,4 hPa 0,0 l/m 0,0 km/h (0 Bft) SW 225 9,4 C 12,6 C 0,0 km/h (0 Bft)
22.08.2019 03:12 12,6 C 13,1 C 18,9 C 0,0 C 81 % 1028,4 hPa 0,0 l/m 0,0 km/h (0 Bft) N-NW 337 9,4 C 12,6 C 0,0 km/h (0 Bft)
22.08.2019 03:10 12,6 C 12,9 C 19,0 C 0,0 C 81 % 1028,4 hPa 0,0 l/m 0,0 km/h (0 Bft) W 270 9,4 C 12,6 C 0,0 km/h (0 Bft)
22.08.2019 03:08 12,6 C 12,9 C 19,0 C 0,0 C 81 % 1028,4 hPa 0,0 l/m 0,0 km/h (0 Bft) W 270 9,4 C 12,6 C 0,0 km/h (0 Bft)
22.08.2019 03:06 12,6 C 12,9 C 19,0 C 0,0 C 81 % 1028,4 hPa 0,0 l/m 0,0 km/h (0 Bft) W 270 9,4 C 12,6 C 0,0 km/h (0 Bft)
22.08.2019 03:04 12,6 C 12,9 C 19,0 C 0,0 C 81 % 1028,4 hPa 0,0 l/m 0,0 km/h (0 Bft) W 270 9,4 C 12,6 C 0,0 km/h (0 Bft)
22.08.2019 03:02 12,6 C 12,9 C 19,0 C 0,0 C 81 % 1028,4 hPa 0,0 l/m 0,0 km/h (0 Bft) W 270 9,4 C 12,6 C 0,0 km/h (0 Bft)
22.08.2019 03:00 12,6 C 12,9 C 19,0 C 0,0 C 81 % 1028,4 hPa 0,0 l/m 0,0 km/h (0 Bft) NW 315 9,4 C 12,6 C 0,0 km/h (0 Bft)
22.08.2019 02:58 12,6 C 12,8 C 19,0 C 0,0 C 81 % 1028,4 hPa 0,0 l/m 0,0 km/h (0 Bft) N 360 9,4 C 12,6 C 0,0 km/h (0 Bft)
22.08.2019 02:56 12,6 C 12,8 C 19,0 C 0,0 C 81 % 1028,4 hPa 0,0 l/m 0,0 km/h (0 Bft) N-NO 22 9,4 C 12,6 C 0,0 km/h (0 Bft)
22.08.2019 02:54 12,6 C 12,8 C 19,0 C 0,0 C 81 % 1028,4 hPa 0,0 l/m 0,0 km/h (0 Bft) N 360 9,4 C 12,6 C 0,0 km/h (0 Bft)
22.08.2019 02:52 12,6 C 12,8 C 19,0 C 0,0 C 81 % 1028,4 hPa 0,0 l/m 0,0 km/h (0 Bft) NO 45 9,4 C 12,6 C 0,0 km/h (0 Bft)
22.08.2019 02:50 12,6 C 12,8 C 19,0 C 0,0 C 81 % 1028,4 hPa 0,0 l/m 0,0 km/h (0 Bft) NO 45 9,4 C 12,6 C 0,0 km/h (0 Bft)
22.08.2019 02:48 12,7 C 12,8 C 19,0 C 0,0 C 81 % 1028,4 hPa 0,0 l/m 0,0 km/h (0 Bft) N-NW 337 9,5 C 12,7 C 0,0 km/h (0 Bft)
22.08.2019 02:46 12,7 C 12,7 C 19,0 C 0,0 C 81 % 1028,4 hPa 0,0 l/m 0,0 km/h (0 Bft) O-SO 112 9,5 C 12,7 C 0,0 km/h (0 Bft)
22.08.2019 02:44 12,7 C 12,7 C 19,0 C 0,0 C 81 % 1028,6 hPa 0,0 l/m 0,0 km/h (0 Bft) SO 135 9,5 C 12,7 C 0,0 km/h (0 Bft)
22.08.2019 02:42 12,7 C 12,9 C 19,0 C 0,0 C 81 % 1028,6 hPa 0,0 l/m 0,0 km/h (0 Bft) S-SO 157 9,5 C 12,7 C 0,0 km/h (0 Bft)
22.08.2019 02:40 12,7 C 13,1 C 19,0 C 0,0 C 81 % 1028,6 hPa 0,0 l/m 0,0 km/h (0 Bft) O-SO 112 9,5 C 12,7 C 0,0 km/h (0 Bft)
22.08.2019 02:38 12,7 C 13,0 C 19,0 C 0,0 C 81 % 1028,6 hPa 0,0 l/m 0,0 km/h (0 Bft) O-SO 112 9,5 C 12,7 C 0,0 km/h (0 Bft)
22.08.2019 02:36 12,7 C 12,8 C 19,0 C 0,0 C 81 % 1028,6 hPa 0,0 l/m 0,0 km/h (0 Bft) S-SO 157 9,5 C 12,7 C 0,0 km/h (0 Bft)
22.08.2019 02:34 12,8 C 12,8 C 19,0 C 0,0 C 81 % 1028,6 hPa 0,0 l/m 0,0 km/h (0 Bft) SO 135 9,6 C 12,8 C 0,0 km/h (0 Bft)
22.08.2019 02:32 12,8 C 12,8 C 19,0 C 0,0 C 81 % 1028,6 hPa 0,0 l/m 0,0 km/h (0 Bft) O-SO 112 9,6 C 12,8 C 0,0 km/h (0 Bft)
22.08.2019 02:30 12,8 C 13,0 C 19,0 C 0,0 C 80 % 1028,6 hPa 0,0 l/m 0,0 km/h (0 Bft) NO 45 9,4 C 12,8 C 0,0 km/h (0 Bft)
22.08.2019 02:28 12,8 C 13,0 C 19,0 C 0,0 C 80 % 1028,6 hPa 0,0 l/m 0,0 km/h (0 Bft) NO 45 9,4 C 12,8 C 0,0 km/h (0 Bft)
22.08.2019 02:26 12,8 C 12,9 C 19,0 C 0,0 C 80 % 1028,6 hPa 0,0 l/m 0,0 km/h (0 Bft) N-NW 337 9,4 C 12,8 C 0,0 km/h (0 Bft)
22.08.2019 02:24 12,8 C 13,0 C 19,0 C 0,0 C 80 % 1028,6 hPa 0,0 l/m 0,0 km/h (0 Bft) N-NO 22 9,4 C 12,8 C 0,0 km/h (0 Bft)
22.08.2019 02:22 12,8 C 12,9 C 19,0 C 0,0 C 80 % 1028,6 hPa 0,0 l/m 0,0 km/h (0 Bft) S-SW 202 9,4 C 12,8 C 0,0 km/h (0 Bft)
22.08.2019 02:20 12,9 C 12,8 C 19,0 C 0,0 C 80 % 1028,6 hPa 0,0 l/m 0,0 km/h (0 Bft) NW 315 9,5 C 12,9 C 0,0 km/h (0 Bft)
22.08.2019 02:18 12,9 C 12,8 C 19,1 C 0,0 C 80 % 1028,6 hPa 0,0 l/m 0,0 km/h (0 Bft) SO 135 9,5 C 12,9 C 0,0 km/h (0 Bft)
22.08.2019 02:16 12,9 C 12,8 C 19,1 C 0,0 C 80 % 1028,6 hPa 0,0 l/m 0,0 km/h (0 Bft) S-SO 157 9,5 C 12,9 C 0,0 km/h (0 Bft)
22.08.2019 02:14 12,9 C 12,9 C 19,1 C 0,0 C 80 % 1028,6 hPa 0,0 l/m 0,0 km/h (0 Bft) SO 135 9,5 C 12,9 C 0,0 km/h (0 Bft)
22.08.2019 02:12 12,9 C 13,1 C 19,1 C 0,0 C 80 % 1028,6 hPa 0,0 l/m 0,0 km/h (0 Bft) O-NO 67 9,5 C 12,9 C 0,0 km/h (0 Bft)
22.08.2019 02:10 12,9 C 13,1 C 19,1 C 0,0 C 80 % 1028,6 hPa 0,0 l/m 0,0 km/h (0 Bft) O 90 9,5 C 12,9 C 0,0 km/h (0 Bft)
22.08.2019 02:08 13,0 C 13,0 C 19,1 C 0,0 C 80 % 1028,6 hPa 0,0 l/m 0,0 km/h (0 Bft) O-SO 112 9,6 C 13,0 C 0,0 km/h (0 Bft)
22.08.2019 02:06 13,0 C 13,0 C 19,1 C 0,0 C 80 % 1028,6 hPa 0,0 l/m 0,0 km/h (0 Bft) O-SO 112 9,6 C 13,0 C 0,0 km/h (0 Bft)
22.08.2019 02:04 13,0 C 13,1 C 19,1 C 0,0 C 80 % 1028,6 hPa 0,0 l/m 0,0 km/h (0 Bft) SO 135 9,6 C 13,0 C 0,0 km/h (0 Bft)
22.08.2019 02:02 13,1 C 13,1 C 19,1 C 0,0 C 80 % 1028,6 hPa 0,0 l/m 0,0 km/h (0 Bft) S-SW 202 9,7 C 13,1 C 0,0 km/h (0 Bft)
22.08.2019 02:00 13,1 C 13,1 C 19,1 C 0,0 C 80 % 1028,6 hPa 0,0 l/m 0,0 km/h (0 Bft) SO 135 9,7 C 13,1 C 0,0 km/h (0 Bft)
22.08.2019 01:58 13,1 C 13,2 C 19,1 C 0,0 C 80 % 1028,6 hPa 0,0 l/m 0,0 km/h (0 Bft) O-NO 67 9,7 C 13,1 C 0,0 km/h (0 Bft)
22.08.2019 01:56 13,1 C 13,2 C 19,1 C 0,0 C 80 % 1028,6 hPa 0,0 l/m 0,0 km/h (0 Bft) O-NO 67 9,7 C 13,1 C 0,0 km/h (0 Bft)
22.08.2019 01:54 13,1 C 13,2 C 19,1 C 0,0 C 80 % 1028,6 hPa 0,0 l/m 0,0 km/h (0 Bft) O-SO 112 9,7 C 13,1 C 0,0 km/h (0 Bft)
22.08.2019 01:52 13,1 C 13,2 C 19,1 C 0,0 C 80 % 1028,6 hPa 0,0 l/m 0,0 km/h (0 Bft) SO 135 9,7 C 13,1 C 0,0 km/h (0 Bft)
22.08.2019 01:50 13,1 C 13,3 C 19,1 C 0,0 C 80 % 1028,6 hPa 0,0 l/m 0,0 km/h (0 Bft) S-SO 157 9,7 C 13,1 C 0,0 km/h (0 Bft)
22.08.2019 01:48 13,2 C 13,3 C 19,1 C 0,0 C 80 % 1028,6 hPa 0,0 l/m 0,0 km/h (0 Bft) S-SO 157 9,8 C 13,2 C 0,0 km/h (0 Bft)
22.08.2019 01:46 13,2 C 13,4 C 19,1 C 0,0 C 79 % 1028,6 hPa 0,0 l/m 0,0 km/h (0 Bft) SW 225 9,6 C 13,2 C 0,0 km/h (0 Bft)
22.08.2019 01:44 13,2 C 13,3 C 19,1 C 0,0 C 79 % 1028,9 hPa 0,0 l/m 0,0 km/h (0 Bft) S-SW 202 9,6 C 13,2 C 0,0 km/h (0 Bft)
22.08.2019 01:42 13,3 C 13,4 C 19,1 C 0,0 C 79 % 1028,9 hPa 0,0 l/m 0,0 km/h (0 Bft) SO 135 9,7 C 13,3 C 0,0 km/h (0 Bft)
22.08.2019 01:40 13,3 C 13,4 C 19,1 C 0,0 C 79 % 1028,9 hPa 0,0 l/m 0,0 km/h (0 Bft) NO 45 9,7 C 13,3 C 0,0 km/h (0 Bft)
22.08.2019 01:38 13,3 C 13,3 C 19,1 C 0,0 C 79 % 1028,9 hPa 0,0 l/m 0,0 km/h (0 Bft) N 360 9,7 C 13,3 C 0,0 km/h (0 Bft)
22.08.2019 01:36 13,3 C 13,2 C 19,1 C 0,0 C 79 % 1028,9 hPa 0,0 l/m 0,0 km/h (0 Bft) NO 45 9,7 C 13,3 C 0,0 km/h (0 Bft)
22.08.2019 01:34 13,3 C 13,2 C 19,1 C 0,0 C 79 % 1028,9 hPa 0,0 l/m 0,0 km/h (0 Bft) NO 45 9,7 C 13,3 C 0,0 km/h (0 Bft)
22.08.2019 01:32 13,4 C 13,4 C 19,1 C 0,0 C 79 % 1028,9 hPa 0,0 l/m 0,0 km/h (0 Bft) O-SO 112 9,8 C 13,4 C 0,0 km/h (0 Bft)
22.08.2019 01:30 13,4 C 13,2 C 19,2 C 0,0 C 79 % 1028,9 hPa 0,0 l/m 0,0 km/h (0 Bft) O-SO 112 9,8 C 13,4 C 0,0 km/h (0 Bft)
22.08.2019 01:28 13,4 C 13,2 C 19,2 C 0,0 C 79 % 1028,9 hPa 0,0 l/m 0,0 km/h (0 Bft) SO 135 9,8 C 13,4 C 0,0 km/h (0 Bft)
22.08.2019 01:26 13,5 C 13,3 C 19,2 C 0,0 C 79 % 1028,9 hPa 0,0 l/m 0,0 km/h (0 Bft) O-SO 112 9,9 C 13,5 C 0,0 km/h (0 Bft)
22.08.2019 01:24 13,5 C 13,4 C 19,2 C 0,0 C 79 % 1029,2 hPa 0,0 l/m 0,0 km/h (0 Bft) O-NO 67 9,9 C 13,5 C 0,0 km/h (0 Bft)
22.08.2019 01:22 13,5 C 13,3 C 19,2 C 0,0 C 79 % 1029,2 hPa 0,0 l/m 0,0 km/h (0 Bft) NO 45 9,9 C 13,5 C 0,0 km/h (0 Bft)
22.08.2019 01:20 13,5 C 13,4 C 19,2 C 0,0 C 79 % 1029,2 hPa 0,0 l/m 0,0 km/h (0 Bft) O-NO 67 9,9 C 13,5 C 0,0 km/h (0 Bft)
22.08.2019 01:18 13,6 C 13,4 C 19,2 C 0,0 C 79 % 1029,2 hPa 0,0 l/m 0,0 km/h (0 Bft) O-SO 112 10,0 C 13,6 C 0,0 km/h (0 Bft)
22.08.2019 01:16 13,6 C 13,5 C 19,2 C 0,0 C 79 % 1029,2 hPa 0,0 l/m 0,2 km/h (0 Bft) O-SO 112 10,0 C 13,6 C 0,0 km/h (0 Bft)
22.08.2019 01:14 13,7 C 13,5 C 19,2 C 0,0 C 79 % 1029,2 hPa 0,0 l/m 0,2 km/h (0 Bft) SW 225 10,1 C 13,7 C 0,0 km/h (0 Bft)
22.08.2019 01:12 13,8 C 13,5 C 19,2 C 0,0 C 79 % 1029,2 hPa 0,0 l/m 0,2 km/h (0 Bft) SW 225 10,2 C 13,8 C 0,0 km/h (0 Bft)
22.08.2019 01:10 13,8 C 13,5 C 19,2 C 0,0 C 79 % 1029,2 hPa 0,0 l/m 0,2 km/h (0 Bft) SO 135 10,2 C 13,8 C 0,0 km/h (0 Bft)
22.08.2019 01:08 13,8 C 13,5 C 19,2 C 0,0 C 79 % 1029,2 hPa 0,0 l/m 0,2 km/h (0 Bft) O-SO 112 10,2 C 13,8 C 1,9 km/h (1 Bft)
22.08.2019 01:06 13,8 C 13,8 C 19,2 C 0,0 C 79 % 1029,2 hPa 0,0 l/m 0,2 km/h (0 Bft) O 90 10,2 C 13,8 C 1,9 km/h (1 Bft)
22.08.2019 01:04 13,9 C 13,8 C 19,2 C 0,0 C 79 % 1029,1 hPa 0,0 l/m 0,0 km/h (0 Bft) NO 45 10,3 C 13,9 C 0,0 km/h (0 Bft)
22.08.2019 01:02 13,9 C 13,8 C 19,2 C 0,0 C 79 % 1029,1 hPa 0,0 l/m 0,0 km/h (0 Bft) N 360 10,3 C 13,9 C 0,0 km/h (0 Bft)
22.08.2019 01:00 13,9 C 13,8 C 19,2 C 0,0 C 79 % 1029,1 hPa 0,0 l/m 0,0 km/h (0 Bft) NO 45 10,3 C 13,9 C 0,0 km/h (0 Bft)
22.08.2019 00:58 13,9 C 13,9 C 19,2 C 0,0 C 79 % 1029,1 hPa 0,0 l/m 0,3 km/h (0 Bft) O 90 10,3 C 13,9 C 0,0 km/h (0 Bft)
22.08.2019 00:56 14,0 C 13,9 C 19,2 C 0,0 C 79 % 1029,1 hPa 0,0 l/m 0,5 km/h (0 Bft) O-NO 67 10,4 C 14,0 C 0,0 km/h (0 Bft)
22.08.2019 00:54 14,0 C 14,1 C 19,2 C 0,0 C 79 % 1029,1 hPa 0,0 l/m 0,5 km/h (0 Bft) S-SW 202 10,4 C 14,0 C 2,9 km/h (1 Bft)
22.08.2019 00:52 14,0 C 14,1 C 19,2 C 0,0 C 79 % 1029,1 hPa 0,0 l/m 0,5 km/h (0 Bft) S-SW 202 10,4 C 14,0 C 0,0 km/h (0 Bft)
22.08.2019 00:50 14,0 C 14,0 C 19,2 C 0,0 C 79 % 1029,1 hPa 0,0 l/m 0,5 km/h (0 Bft) SO 135 10,4 C 14,0 C 2,9 km/h (1 Bft)
22.08.2019 00:48 14,1 C 13,9 C 19,2 C 0,0 C 78 % 1029,1 hPa 0,0 l/m 0,3 km/h (0 Bft) O-SO 112 10,3 C 14,1 C 2,9 km/h (1 Bft)
22.08.2019 00:46 14,1 C 14,0 C 19,2 C 0,0 C 78 % 1029,1 hPa 0,0 l/m 0,0 km/h (0 Bft) SO 135 10,3 C 14,1 C 0,0 km/h (0 Bft)
22.08.2019 00:44 14,1 C 14,0 C 19,2 C 0,0 C 78 % 1029,4 hPa 0,0 l/m 0,0 km/h (0 Bft) O-NO 67 10,3 C 14,1 C 0,0 km/h (0 Bft)
22.08.2019 00:42 14,1 C 14,1 C 19,2 C 0,0 C 78 % 1029,4 hPa 0,0 l/m 0,0 km/h (0 Bft) N-NW 337 10,3 C 14,1 C 0,0 km/h (0 Bft)
22.08.2019 00:40 14,1 C 14,2 C 19,2 C 0,0 C 78 % 1029,4 hPa 0,0 l/m 0,0 km/h (0 Bft) NO 45 10,3 C 14,1 C 0,0 km/h (0 Bft)
22.08.2019 00:38 14,1 C 14,2 C 19,2 C 0,0 C 78 % 1029,4 hPa 0,0 l/m 0,0 km/h (0 Bft) NO 45 10,3 C 14,1 C 0,0 km/h (0 Bft)
22.08.2019 00:36 14,2 C 14,2 C 19,2 C 0,0 C 78 % 1029,4 hPa 0,0 l/m 0,0 km/h (0 Bft) O-NO 67 10,4 C 14,2 C 0,0 km/h (0 Bft)
22.08.2019 00:34 14,2 C 14,0 C 19,2 C 0,0 C 78 % 1029,4 hPa 0,0 l/m 0,0 km/h (0 Bft) NW 315 10,4 C 14,2 C 0,0 km/h (0 Bft)
22.08.2019 00:32 14,2 C 14,3 C 19,2 C 0,0 C 78 % 1029,4 hPa 0,0 l/m 0,0 km/h (0 Bft) SW 225 10,4 C 14,2 C 0,0 km/h (0 Bft)
22.08.2019 00:30 14,2 C 14,4 C 19,2 C 0,0 C 78 % 1029,4 hPa 0,0 l/m 0,0 km/h (0 Bft) W-SW 247 10,4 C 14,2 C 0,0 km/h (0 Bft)
22.08.2019 00:28 14,2 C 14,5 C 19,2 C 0,0 C 78 % 1029,4 hPa 0,0 l/m 0,0 km/h (0 Bft) SW 225 10,4 C 14,2 C 0,0 km/h (0 Bft)
22.08.2019 00:26 14,3 C 14,4 C 19,2 C 0,0 C 78 % 1029,4 hPa 0,0 l/m 0,2 km/h (0 Bft) W-SW 247 10,5 C 14,3 C 0,0 km/h (0 Bft)
22.08.2019 00:24 14,3 C 14,3 C 19,2 C 0,0 C 78 % 1029,4 hPa 0,0 l/m 0,3 km/h (0 Bft) S 180 10,5 C 14,3 C 0,0 km/h (0 Bft)
22.08.2019 00:22 14,3 C 14,3 C 19,2 C 0,0 C 78 % 1029,4 hPa 0,0 l/m 0,3 km/h (0 Bft) S-SO 157 10,5 C 14,3 C 1,9 km/h (1 Bft)
22.08.2019 00:20 14,4 C 14,2 C 19,2 C 0,0 C 78 % 1029,4 hPa 0,0 l/m 0,3 km/h (0 Bft) SO 135 10,6 C 14,4 C 1,9 km/h (1 Bft)
22.08.2019 00:18 14,4 C 14,3 C 19,3 C 0,0 C 78 % 1029,4 hPa 0,0 l/m 0,2 km/h (0 Bft) SO 135 10,6 C 14,4 C 1,9 km/h (1 Bft)
22.08.2019 00:16 14,4 C 14,3 C 19,3 C 0,0 C 78 % 1029,4 hPa 0,0 l/m 0,2 km/h (0 Bft) SO 135 10,6 C 14,4 C 0,0 km/h (0 Bft)
22.08.2019 00:14 14,5 C 14,3 C 19,3 C 0,0 C 78 % 1029,4 hPa 0,0 l/m 0,0 km/h (0 Bft) O-SO 112 10,7 C 14,5 C 0,0 km/h (0 Bft)
22.08.2019 00:12 14,5 C 14,5 C 19,2 C 0,0 C 78 % 1029,4 hPa 0,0 l/m 0,0 km/h (0 Bft) NO 45 10,7 C 14,5 C 0,0 km/h (0 Bft)
22.08.2019 00:10 14,5 C 14,6 C 19,2 C 0,0 C 78 % 1029,4 hPa 0,0 l/m 0,0 km/h (0 Bft) NO 45 10,7 C 14,5 C 0,0 km/h (0 Bft)
22.08.2019 00:08 14,5 C 14,6 C 19,2 C 0,0 C 78 % 1029,4 hPa 0,0 l/m 0,0 km/h (0 Bft) N 360 10,7 C 14,5 C 0,0 km/h (0 Bft)
22.08.2019 00:06 14,5 C 14,7 C 19,3 C 0,0 C 78 % 1029,4 hPa 0,0 l/m 0,0 km/h (0 Bft) O 90 10,7 C 14,5 C 0,0 km/h (0 Bft)
22.08.2019 00:04 14,4 C 14,7 C 19,3 C 0,0 C 78 % 1029,4 hPa 0,0 l/m 0,0 km/h (0 Bft) N-NO 22 10,6 C 14,4 C 0,0 km/h (0 Bft)
22.08.2019 00:02 14,4 C 14,7 C 19,3 C 0,0 C 78 % 1029,4 hPa 0,0 l/m 0,0 km/h (0 Bft) N-NO 22 10,6 C 14,4 C 0,0 km/h (0 Bft)
22.08.2019 00:00 14,4 C 14,7 C 19,3 C 0,0 C 78 % 1029,4 hPa 0,0 l/m 0,0 km/h (0 Bft) N-NO 22 10,6 C 14,4 C 0,0 km/h (0 Bft)
_ Min-Zeit 03:22 02:44 08:50 00:00 15:54 16:06 - 00:00 - - 03:22 03:22 00:00
Minimum _ 12,5 C 12,7 C 18,6 C 0,0 C 63 % 1025,8 hPa - 0,0 km/h (0 Bft) - - 9,3 C 12,5 C 0,0 km/h (0 Bft)
_ Max-Zeit 16:02 15:52 16:02 00:00 04:16 00:00 00:00 12:30 - - 16:12 16:02 12:34
Maximum _ 22,0 C 25,5 C 19,7 C 0,0 C 82 % 1029,4 hPa 0,0 l/m 17,1 km/h
O-NO (3 Bft)
- - 15,0 C 22,0 C 41,3 km/h
O-NO (6 Bft)
Durchschnitt _ 16,0 C 16,6 C 19,0 C 0,0 C 75 % 1027,5 hPa #0,0 l/m 2,8 km/h (1 Bft) NO - 11,5 C 15,8 C 5,3 km/h (1 Bft)